Time,TemperatureF,DewpointF,PressureIn,WindDirection,WindDirectionDegrees,WindSpeedMPH,WindSpeedGustMPH,Humidity,HourlyPrecipIn,Conditions,Clouds,dailyrainin,SoftwareType,DateUTC
2013-04-29 00:01:00,43.9,43.1,29.88,North,355,3.0,4.0,97,0.00,,,0.02,Wunderground v.1.15,2013-04-29 04:01:00,
2013-04-29 00:02:00,43.9,43.1,29.88,North,355,3.0,4.0,97,0.00,,,0.02,Wunderground v.1.15,2013-04-29 04:02:00,
2013-04-29 00:03:00,43.9,43.1,29.88,North,355,2.0,4.0,97,0.00,,,0.02,Wunderground v.1.15,2013-04-29 04:03:00,
2013-04-29 00:04:00,43.9,43.1,29.88,North,355,3.0,4.0,97,0.00,,,0.02,Wunderground v.1.15,2013-04-29 04:04:00,
2013-04-29 00:07:00,43.8,43.0,29.88,North,355,3.0,4.0,97,0.00,,,0.02,Wunderground v.1.15,2013-04-29 04:07:00,
2013-04-29 00:08:00,43.8,43.0,29.88,North,355,3.0,4.0,97,0.00,,,0.02,Wunderground v.1.15,2013-04-29 04:08:00,
2013-04-29 00:11:00,43.8,43.0,29.88,North,355,3.0,4.0,97,0.00,,,0.02,Wunderground v.1.15,2013-04-29 04:11:00,
2013-04-29 00:12:00,43.8,43.0,29.88,North,355,3.0,4.0,97,0.00,,,0.02,Wunderground v.1.15,2013-04-29 04:12:00,
2013-04-29 00:15:00,43.7,42.9,29.88,North,355,3.0,4.0,97,0.00,,,0.02,Wunderground v.1.15,2013-04-29 04:15:00,
2013-04-29 00:17:00,43.7,42.9,29.88,North,355,3.0,4.0,97,0.00,,,0.00,Wunderground v.1.15,2013-04-29 04:17:00,
2013-04-29 00:18:00,43.7,42.9,29.88,North,355,3.0,4.0,97,0.00,,,0.00,Wunderground v.1.15,2013-04-29 04:18:00,
2013-04-29 00:19:00,43.6,42.8,29.88,North,355,2.0,4.0,97,0.00,,,0.00,Wunderground v.1.15,2013-04-29 04:19:00,
2013-04-29 00:21:00,43.6,42.8,29.88,North,355,1.0,3.0,97,0.00,,,0.00,Wunderground v.1.15,2013-04-29 04:21:00,
2013-04-29 00:23:00,43.6,42.8,29.89,North,355,0.0,3.0,97,0.00,,,0.00,Wunderground v.1.15,2013-04-29 04:23:00,
2013-04-29 00:25:00,43.6,42.8,29.88,North,355,0.0,3.0,97,0.00,,,0.00,Wunderground v.1.15,2013-04-29 04:25:00,
2013-04-29 00:26:00,43.6,42.8,29.89,North,355,0.0,3.0,97,0.00,,,0.00,Wunderground v.1.15,2013-04-29 04:26:00,
2013-04-29 00:28:00,43.7,42.9,29.89,North,355,0.0,3.0,97,0.00,,,0.00,Wunderground v.1.15,2013-04-29 04:28:00,
2013-04-29 00:34:00,44.4,43.6,29.89,NNW,345,1.0,1.0,97,0.00,,,0.00,Wunderground v.1.15,2013-04-29 04:34:00,
2013-04-29 00:35:00,44.5,43.7,29.89,NNW,345,3.0,3.0,97,0.00,,,0.00,Wunderground v.1.15,2013-04-29 04:35:00,
2013-04-29 00:36:00,44.7,44.2,29.89,NNW,331,3.0,3.0,98,0.00,,,0.00,Wunderground v.1.15,2013-04-29 04:36:00,
2013-04-29 00:40:00,45.3,44.8,29.89,WNW,284,1.0,1.0,98,0.00,,,0.00,Wunderground v.1.15,2013-04-29 04:40:00,
2013-04-29 00:41:00,45.4,44.9,29.89,WNW,284,0.0,2.0,98,0.00,,,0.00,Wunderground v.1.15,2013-04-29 04:41:00,
2013-04-29 00:43:00,45.5,45.0,29.89,WNW,284,0.0,2.0,98,0.00,,,0.00,Wunderground v.1.15,2013-04-29 04:43:00,
2013-04-29 00:45:00,45.6,45.1,29.89,WNW,284,1.0,2.0,98,0.00,,,0.00,Wunderground v.1.15,2013-04-29 04:45:00,
2013-04-29 00:46:00,45.7,45.2,29.89,WNW,284,0.0,2.0,98,0.00,,,0.00,Wunderground v.1.15,2013-04-29 04:46:00,
2013-04-29 00:48:00,45.7,45.2,29.89,WNW,283,0.0,2.0,98,0.00,,,0.00,Wunderground v.1.15,2013-04-29 04:48:00,
2013-04-29 00:49:00,45.8,45.3,29.89,WNW,284,0.0,2.0,98,0.00,,,0.00,Wunderground v.1.15,2013-04-29 04:49:00,
2013-04-29 00:51:00,45.8,45.3,29.89,WNW,283,0.0,1.0,98,0.00,,,0.00,Wunderground v.1.15,2013-04-29 04:51:00,
2013-04-29 00:54:00,45.8,45.3,29.89,WNW,284,1.0,1.0,98,0.00,,,0.00,Wunderground v.1.15,2013-04-29 04:54:00,
2013-04-29 00:56:00,45.8,45.3,29.89,WNW,284,1.0,1.0,98,0.00,,,0.00,Wunderground v.1.15,2013-04-29 04:56:00,
2013-04-29 00:57:00,45.8,45.3,29.89,WNW,284,1.0,1.0,98,0.00,,,0.00,Wunderground v.1.15,2013-04-29 04:57:00,
2013-04-29 01:00:00,45.9,45.1,29.89,WNW,284,1.0,1.0,97,0.00,,,0.00,Wunderground v.1.15,2013-04-29 05:00:00,
2013-04-29 01:02:00,45.9,45.1,29.89,WNW,283,1.0,1.0,97,0.00,,,0.00,Wunderground v.1.15,2013-04-29 05:02:00,
2013-04-29 01:04:00,45.9,45.1,29.89,WNW,284,1.0,2.0,97,0.00,,,0.00,Wunderground v.1.15,2013-04-29 05:04:00,
2013-04-29 01:06:00,45.9,45.1,29.89,WNW,284,5.0,5.0,97,0.00,,,0.00,Wunderground v.1.15,2013-04-29 05:06:00,
2013-04-29 01:09:00,45.9,45.1,29.89,WNW,284,2.0,5.0,97,0.00,,,0.00,Wunderground v.1.15,2013-04-29 05:09:00,
2013-04-29 01:11:00,45.9,45.1,29.89,WNW,284,1.0,1.0,97,0.00,,,0.00,Wunderground v.1.15,2013-04-29 05:11:00,
2013-04-29 01:14:00,45.8,45.3,29.89,WNW,284,1.0,2.0,98,0.00,,,0.00,Wunderground v.1.15,2013-04-29 05:14:00,
2013-04-29 01:15:00,45.8,45.3,29.89,WNW,284,0.0,2.0,98,0.00,,,0.00,Wunderground v.1.15,2013-04-29 05:15:00,
2013-04-29 01:16:00,45.7,45.2,29.89,WNW,284,0.0,2.0,98,0.00,,,0.00,Wunderground v.1.15,2013-04-29 05:16:00,
2013-04-29 01:18:00,45.7,45.2,29.89,WNW,284,3.0,3.0,98,0.00,,,0.00,Wunderground v.1.15,2013-04-29 05:18:00,
2013-04-29 01:22:00,45.2,44.4,29.89,WNW,284,1.0,2.0,97,0.00,,,0.00,Wunderground v.1.15,2013-04-29 05:22:00,
2013-04-29 01:24:00,45.0,44.2,29.89,WNW,284,0.0,2.0,97,0.00,,,0.00,Wunderground v.1.15,2013-04-29 05:24:00,
2013-04-29 01:25:00,45.0,44.2,29.89,WNW,284,0.0,2.0,97,0.00,,,0.00,Wunderground v.1.15,2013-04-29 05:25:00,
2013-04-29 01:26:00,45.0,44.2,29.89,WNW,284,0.0,2.0,97,0.00,,,0.00,Wunderground v.1.15,2013-04-29 05:26:00,
2013-04-29 01:30:00,44.8,44.0,29.89,WNW,284,1.0,1.0,97,0.00,,,0.00,Wunderground v.1.15,2013-04-29 05:30:00,
2013-04-29 01:32:00,44.6,43.8,29.89,WNW,284,0.0,1.0,97,0.00,,,0.00,Wunderground v.1.15,2013-04-29 05:32:00,
2013-04-29 01:33:00,44.6,43.8,29.89,WNW,284,0.0,1.0,97,0.00,,,0.00,Wunderground v.1.15,2013-04-29 05:33:00,
2013-04-29 01:36:00,44.5,43.7,29.89,WNW,284,0.0,1.0,97,0.00,,,0.00,Wunderground v.1.15,2013-04-29 05:36:00,
2013-04-29 01:37:00,44.5,43.7,29.89,WNW,284,1.0,1.0,97,0.00,,,0.00,Wunderground v.1.15,2013-04-29 05:37:00,
2013-04-29 01:39:00,44.5,43.7,29.90,WNW,284,0.0,1.0,97,0.00,,,0.00,Wunderground v.1.15,2013-04-29 05:39:00,
2013-04-29 01:42:00,44.5,44.0,29.90,WNW,284,2.0,2.0,98,0.00,,,0.00,Wunderground v.1.15,2013-04-29 05:42:00,
2013-04-29 01:43:00,44.5,44.0,29.90,WNW,284,0.0,2.0,98,0.00,,,0.00,Wunderground v.1.15,2013-04-29 05:43:00,
2013-04-29 01:44:00,44.5,44.0,29.90,WNW,284,0.0,2.0,98,0.00,,,0.00,Wunderground v.1.15,2013-04-29 05:44:00,
2013-04-29 01:47:00,44.5,44.0,29.90,WNW,284,1.0,2.0,98,0.00,,,0.00,Wunderground v.1.15,2013-04-29 05:47:00,
2013-04-29 01:48:00,44.5,44.0,29.90,WNW,284,1.0,2.0,98,0.00,,,0.00,Wunderground v.1.15,2013-04-29 05:48:00,
2013-04-29 01:49:00,44.5,44.0,29.90,WNW,284,0.0,2.0,98,0.00,,,0.00,Wunderground v.1.15,2013-04-29 05:49:00,
2013-04-29 01:52:00,44.5,44.0,29.90,WNW,284,2.0,2.0,98,0.00,,,0.00,Wunderground v.1.15,2013-04-29 05:52:00,
2013-04-29 01:54:00,44.5,44.0,29.90,WNW,284,0.0,2.0,98,0.00,,,0.00,Wunderground v.1.15,2013-04-29 05:54:00,
2013-04-29 01:57:00,44.5,44.0,29.90,WNW,284,0.0,2.0,98,0.00,,,0.00,Wunderground v.1.15,2013-04-29 05:57:00,
2013-04-29 01:59:00,44.5,44.0,29.90,WNW,284,0.0,2.0,98,0.00,,,0.00,Wunderground v.1.15,2013-04-29 05:59:00,
2013-04-29 02:00:00,44.5,44.0,29.90,WNW,284,0.0,1.0,98,0.00,,,0.00,Wunderground v.1.15,2013-04-29 06:00:00,
2013-04-29 02:01:00,44.5,44.0,29.90,WNW,284,0.0,1.0,98,0.00,,,0.00,Wunderground v.1.15,2013-04-29 06:01:00,
2013-04-29 02:02:00,44.5,44.0,29.90,WNW,284,0.0,1.0,98,0.00,,,0.00,Wunderground v.1.15,2013-04-29 06:02:00,
2013-04-29 02:04:00,44.5,44.0,29.90,WNW,284,0.0,1.0,98,0.00,,,0.00,Wunderground v.1.15,2013-04-29 06:04:00,
2013-04-29 02:05:00,44.5,44.0,29.90,WNW,284,0.0,1.0,98,0.00,,,0.00,Wunderground v.1.15,2013-04-29 06:05:00,
2013-04-29 02:06:00,44.5,44.0,29.90,WNW,284,0.0,1.0,98,0.00,,,0.00,Wunderground v.1.15,2013-04-29 06:06:00,
2013-04-29 02:07:00,44.5,44.0,29.90,WNW,284,0.0,1.0,98,0.00,,,0.00,Wunderground v.1.15,2013-04-29 06:07:00,
2013-04-29 02:09:00,44.4,43.9,29.90,WNW,284,0.0,1.0,98,0.00,,,0.00,Wunderground v.1.15,2013-04-29 06:09:00,
2013-04-29 02:10:00,44.4,43.9,29.90,WNW,284,0.0,0.0,98,0.00,,,0.00,Wunderground v.1.15,2013-04-29 06:10:00,
2013-04-29 02:12:00,44.4,43.9,29.90,WNW,284,0.0,0.0,98,0.00,,,0.00,Wunderground v.1.15,2013-04-29 06:12:00,
2013-04-29 02:13:00,44.3,43.8,29.90,WNW,284,0.0,0.0,98,0.00,,,0.00,Wunderground v.1.15,2013-04-29 06:13:00,
2013-04-29 02:14:00,44.3,43.5,29.90,WNW,284,0.0,1.0,97,0.00,,,0.00,Wunderground v.1.15,2013-04-29 06:14:00,
2013-04-29 02:15:00,44.2,43.4,29.90,WNW,284,0.0,1.0,97,0.00,,,0.00,Wunderground v.1.15,2013-04-29 06:15:00,
2013-04-29 02:17:00,44.2,43.4,29.90,WNW,284,0.0,1.0,97,0.00,,,0.00,Wunderground v.1.15,2013-04-29 06:17:00,
2013-04-29 02:18:00,44.2,43.4,29.90,WNW,284,0.0,1.0,97,0.00,,,0.00,Wunderground v.1.15,2013-04-29 06:18:00,
2013-04-29 02:20:00,44.1,43.3,29.90,WNW,284,0.0,0.0,97,0.00,,,0.00,Wunderground v.1.15,2013-04-29 06:20:00,
2013-04-29 02:22:00,44.0,43.5,29.90,WNW,284,0.0,0.0,98,0.00,,,0.00,Wunderground v.1.15,2013-04-29 06:22:00,
2013-04-29 02:23:00,44.0,43.5,29.90,WNW,284,0.0,0.0,98,0.00,,,0.00,Wunderground v.1.15,2013-04-29 06:23:00,
2013-04-29 02:25:00,43.9,43.4,29.90,WNW,284,0.0,0.0,98,0.00,,,0.00,Wunderground v.1.15,2013-04-29 06:25:00,
2013-04-29 02:26:00,43.9,43.4,29.90,WNW,284,0.0,0.0,98,0.00,,,0.00,Wunderground v.1.15,2013-04-29 06:26:00,
2013-04-29 02:28:00,43.8,43.0,29.90,WNW,284,0.0,0.0,97,0.00,,,0.00,Wunderground v.1.15,2013-04-29 06:28:00,
2013-04-29 02:30:00,43.7,42.9,29.90,WNW,284,0.0,0.0,97,0.00,,,0.00,Wunderground v.1.15,2013-04-29 06:30:00,
2013-04-29 02:31:00,43.6,42.8,29.90,WNW,284,0.0,0.0,97,0.00,,,0.00,Wunderground v.1.15,2013-04-29 06:31:00,
2013-04-29 02:33:00,43.5,42.7,29.90,WNW,284,0.0,0.0,97,0.00,,,0.00,Wunderground v.1.15,2013-04-29 06:33:00,
2013-04-29 02:34:00,43.5,42.7,29.90,WNW,284,0.0,0.0,97,0.00,,,0.00,Wunderground v.1.15,2013-04-29 06:34:00,
2013-04-29 02:35:00,43.5,42.7,29.90,WNW,284,0.0,0.0,97,0.00,,,0.00,Wunderground v.1.15,2013-04-29 06:35:00,
2013-04-29 02:36:00,43.4,42.6,29.90,WNW,284,0.0,0.0,97,0.00,,,0.00,Wunderground v.1.15,2013-04-29 06:36:00,
2013-04-29 02:38:00,43.4,42.6,29.90,WNW,284,0.0,0.0,97,0.00,,,0.00,Wunderground v.1.15,2013-04-29 06:38:00,
2013-04-29 02:39:00,43.4,42.6,29.90,WNW,284,0.0,0.0,97,0.00,,,0.00,Wunderground v.1.15,2013-04-29 06:39:00,
2013-04-29 02:40:00,43.4,42.6,29.90,WNW,284,0.0,0.0,97,0.00,,,0.00,Wunderground v.1.15,2013-04-29 06:40:00,
2013-04-29 02:41:00,43.3,42.5,29.90,WNW,284,0.0,0.0,97,0.00,,,0.00,Wunderground v.1.15,2013-04-29 06:41:00,
2013-04-29 02:44:00,43.3,42.8,29.90,WNW,284,0.0,0.0,98,0.00,,,0.00,Wunderground v.1.15,2013-04-29 06:44:00,
2013-04-29 02:45:00,43.2,42.7,29.90,WNW,284,0.0,0.0,98,0.00,,,0.00,Wunderground v.1.15,2013-04-29 06:45:00,
2013-04-29 02:46:00,43.2,42.7,29.90,WNW,284,0.0,0.0,98,0.00,,,0.00,Wunderground v.1.15,2013-04-29 06:46:00,
2013-04-29 02:49:00,43.1,42.3,29.90,WNW,284,0.0,0.0,97,0.00,,,0.00,Wunderground v.1.15,2013-04-29 06:49:00,
2013-04-29 02:51:00,43.1,42.3,29.90,WNW,284,0.0,0.0,97,0.00,,,0.00,Wunderground v.1.15,2013-04-29 06:51:00,
2013-04-29 02:52:00,43.1,42.3,29.90,WNW,284,0.0,0.0,97,0.00,,,0.00,Wunderground v.1.15,2013-04-29 06:52:00,
2013-04-29 02:54:00,43.0,42.2,29.90,WNW,284,0.0,1.0,97,0.00,,,0.00,Wunderground v.1.15,2013-04-29 06:54:00,
2013-04-29 02:55:00,43.0,42.2,29.90,WNW,284,0.0,1.0,97,0.00,,,0.00,Wunderground v.1.15,2013-04-29 06:55:00,
2013-04-29 02:56:00,42.9,42.1,29.90,WNW,284,0.0,1.0,97,0.00,,,0.00,Wunderground v.1.15,2013-04-29 06:56:00,
2013-04-29 02:57:00,42.9,42.1,29.90,WNW,284,1.0,1.0,97,0.00,,,0.00,Wunderground v.1.15,2013-04-29 06:57:00,
2013-04-29 02:59:00,42.7,41.9,29.89,WNW,284,0.0,2.0,97,0.00,,,0.00,Wunderground v.1.15,2013-04-29 06:59:00,
2013-04-29 03:00:00,42.7,41.9,29.89,WNW,284,0.0,0.0,97,0.00,,,0.00,Wunderground v.1.15,2013-04-29 07:00:00,
2013-04-29 03:01:00,42.6,41.8,29.89,WNW,284,1.0,1.0,97,0.00,,,0.00,Wunderground v.1.15,2013-04-29 07:01:00,
2013-04-29 03:02:00,42.6,41.8,29.89,WNW,284,2.0,2.0,97,0.00,,,0.00,Wunderground v.1.15,2013-04-29 07:02:00,
2013-04-29 03:03:00,42.6,41.8,29.89,WNW,284,1.0,2.0,97,0.00,,,0.00,Wunderground v.1.15,2013-04-29 07:03:00,
2013-04-29 03:05:00,42.5,41.7,29.89,WNW,284,0.0,2.0,97,0.00,,,0.00,Wunderground v.1.15,2013-04-29 07:05:00,
2013-04-29 03:06:00,42.4,41.6,29.89,WNW,284,0.0,2.0,97,0.00,,,0.00,Wunderground v.1.15,2013-04-29 07:06:00,
2013-04-29 03:07:00,42.4,41.6,29.89,WNW,284,0.0,2.0,97,0.00,,,0.00,Wunderground v.1.15,2013-04-29 07:07:00,
2013-04-29 03:08:00,42.3,41.5,29.89,WNW,284,0.0,2.0,97,0.00,,,0.00,Wunderground v.1.15,2013-04-29 07:08:00,
2013-04-29 03:10:00,42.3,41.5,29.89,WNW,284,0.0,0.0,97,0.00,,,0.00,Wunderground v.1.15,2013-04-29 07:10:00,
2013-04-29 03:11:00,42.2,41.4,29.89,WNW,284,0.0,0.0,97,0.00,,,0.00,Wunderground v.1.15,2013-04-29 07:11:00,
2013-04-29 03:12:00,42.2,41.4,29.89,WNW,284,0.0,0.0,97,0.00,,,0.00,Wunderground v.1.15,2013-04-29 07:12:00,
2013-04-29 03:13:00,42.2,41.4,29.89,WNW,284,0.0,0.0,97,0.00,,,0.00,Wunderground v.1.15,2013-04-29 07:13:00,
2013-04-29 03:15:00,42.1,41.3,29.89,WNW,284,0.0,0.0,97,0.00,,,0.00,Wunderground v.1.15,2013-04-29 07:15:00,
2013-04-29 03:16:00,42.1,41.3,29.89,WNW,284,1.0,1.0,97,0.00,,,0.00,Wunderground v.1.15,2013-04-29 07:16:00,
2013-04-29 03:17:00,42.1,41.3,29.89,WNW,284,0.0,1.0,97,0.00,,,0.00,Wunderground v.1.15,2013-04-29 07:17:00,
2013-04-29 03:18:00,42.0,41.2,29.89,WNW,284,1.0,1.0,97,0.00,,,0.00,Wunderground v.1.15,2013-04-29 07:18:00,
2013-04-29 03:19:00,42.0,41.2,29.89,WNW,284,1.0,1.0,97,0.00,,,0.00,Wunderground v.1.15,2013-04-29 07:19:00,
2013-04-29 03:20:00,41.9,41.1,29.89,WNW,284,0.0,1.0,97,0.00,,,0.00,Wunderground v.1.15,2013-04-29 07:20:00,
2013-04-29 03:21:00,41.9,41.1,29.89,WNW,284,0.0,1.0,97,0.00,,,0.00,Wunderground v.1.15,2013-04-29 07:21:00,
2013-04-29 03:23:00,41.8,41.0,29.89,WNW,284,0.0,1.0,97,0.00,,,0.00,Wunderground v.1.15,2013-04-29 07:23:00,
2013-04-29 03:24:00,41.8,41.0,29.89,WNW,284,0.0,1.0,97,0.00,,,0.00,Wunderground v.1.15,2013-04-29 07:24:00,
2013-04-29 03:25:00,41.7,40.9,29.89,WNW,284,1.0,2.0,97,0.00,,,0.00,Wunderground v.1.15,2013-04-29 07:25:00,
2013-04-29 03:27:00,41.6,40.8,29.89,WNW,284,2.0,2.0,97,0.00,,,0.00,Wunderground v.1.15,2013-04-29 07:27:00,
2013-04-29 03:28:00,41.5,40.7,29.89,WNW,284,3.0,3.0,97,0.00,,,0.00,Wunderground v.1.15,2013-04-29 07:28:00,
2013-04-29 03:29:00,41.5,40.7,29.89,WNW,284,2.0,3.0,97,0.00,,,0.00,Wunderground v.1.15,2013-04-29 07:29:00,
2013-04-29 03:31:00,41.4,40.6,29.88,West,273,2.0,3.0,97,0.00,,,0.00,Wunderground v.1.15,2013-04-29 07:31:00,
2013-04-29 03:32:00,41.4,40.6,29.89,West,269,3.0,3.0,97,0.00,,,0.00,Wunderground v.1.15,2013-04-29 07:32:00,
2013-04-29 03:34:00,41.4,40.6,29.88,West,268,3.0,3.0,97,0.00,,,0.00,Wunderground v.1.15,2013-04-29 07:34:00,
2013-04-29 03:36:00,41.2,40.4,29.89,West,267,3.0,3.0,97,0.00,,,0.00,Wunderground v.1.15,2013-04-29 07:36:00,
2013-04-29 03:37:00,41.1,40.3,29.89,West,267,2.0,3.0,97,0.00,,,0.00,Wunderground v.1.15,2013-04-29 07:37:00,
2013-04-29 03:39:00,41.1,40.3,29.89,West,267,2.0,3.0,97,0.00,,,0.00,Wunderground v.1.15,2013-04-29 07:39:00,
2013-04-29 03:40:00,41.1,40.3,29.89,West,267,3.0,3.0,97,0.00,,,0.00,Wunderground v.1.15,2013-04-29 07:40:00,
2013-04-29 03:41:00,41.0,40.2,29.89,West,267,3.0,3.0,97,0.00,,,0.00,Wunderground v.1.15,2013-04-29 07:41:00,
2013-04-29 03:42:00,41.0,40.2,29.89,West,267,3.0,3.0,97,0.00,,,0.00,Wunderground v.1.15,2013-04-29 07:42:00,
2013-04-29 03:44:00,40.9,40.1,29.89,West,264,3.0,4.0,97,0.00,,,0.00,Wunderground v.1.15,2013-04-29 07:44:00,
2013-04-29 03:45:00,40.9,40.1,29.89,WSW,257,4.0,4.0,97,0.00,,,0.00,Wunderground v.1.15,2013-04-29 07:45:00,
2013-04-29 03:46:00,40.9,40.1,29.89,WSW,254,4.0,4.0,97,0.00,,,0.00,Wunderground v.1.15,2013-04-29 07:46:00,
2013-04-29 03:48:00,40.8,40.0,29.89,WSW,250,3.0,4.0,97,0.00,,,0.00,Wunderground v.1.15,2013-04-29 07:48:00,
2013-04-29 03:50:00,40.7,39.9,29.88,SW,233,4.0,4.0,97,0.00,,,0.00,Wunderground v.1.15,2013-04-29 07:50:00,
2013-04-29 03:51:00,40.7,39.9,29.88,SW,232,3.0,4.0,97,0.00,,,0.00,Wunderground v.1.15,2013-04-29 07:51:00,
2013-04-29 03:53:00,40.6,39.8,29.89,SW,232,4.0,4.0,97,0.00,,,0.00,Wunderground v.1.15,2013-04-29 07:53:00,
2013-04-29 03:55:00,40.6,39.8,29.89,SW,232,3.0,4.0,97,0.00,,,0.00,Wunderground v.1.15,2013-04-29 07:55:00,
2013-04-29 03:56:00,40.6,39.8,29.89,SW,230,4.0,4.0,97,0.00,,,0.00,Wunderground v.1.15,2013-04-29 07:56:00,
2013-04-29 03:57:00,40.5,39.7,29.89,SSW,192,4.0,4.0,97,0.00,,,0.00,Wunderground v.1.15,2013-04-29 07:57:00,
2013-04-29 03:58:00,40.5,39.7,29.89,South,187,4.0,4.0,97,0.00,,,0.00,Wunderground v.1.15,2013-04-29 07:58:00,
2013-04-29 04:01:00,40.4,39.6,29.89,South,182,5.0,5.0,97,0.00,,,0.00,Wunderground v.1.15,2013-04-29 08:01:00,
2013-04-29 04:02:00,40.4,39.6,29.89,South,181,4.0,5.0,97,0.00,,,0.00,Wunderground v.1.15,2013-04-29 08:02:00,
2013-04-29 04:03:00,40.4,39.6,29.89,South,180,5.0,5.0,97,0.00,,,0.00,Wunderground v.1.15,2013-04-29 08:03:00,
2013-04-29 04:06:00,40.4,39.6,29.89,South,180,4.0,5.0,97,0.00,,,0.00,Wunderground v.1.15,2013-04-29 08:06:00,
2013-04-29 04:07:00,40.4,39.6,29.89,South,179,5.0,5.0,97,0.00,,,0.00,Wunderground v.1.15,2013-04-29 08:07:00,
2013-04-29 04:09:00,40.4,39.6,29.89,South,178,4.0,5.0,97,0.00,,,0.00,Wunderground v.1.15,2013-04-29 08:09:00,
2013-04-29 04:11:00,40.4,39.9,29.89,South,175,4.0,5.0,98,0.00,,,0.00,Wunderground v.1.15,2013-04-29 08:11:00,
2013-04-29 04:12:00,40.4,39.9,29.89,South,175,5.0,5.0,98,0.00,,,0.00,Wunderground v.1.15,2013-04-29 08:12:00,
2013-04-29 04:14:00,40.5,40.0,29.89,South,172,4.0,5.0,98,0.00,,,0.00,Wunderground v.1.15,2013-04-29 08:14:00,
2013-04-29 04:16:00,40.5,40.0,29.89,South,171,4.0,5.0,98,0.00,,,0.00,Wunderground v.1.15,2013-04-29 08:16:00,
2013-04-29 04:17:00,40.5,40.0,29.89,South,171,5.0,5.0,98,0.00,,,0.00,Wunderground v.1.15,2013-04-29 08:17:00,
2013-04-29 04:18:00,40.5,40.0,29.89,South,169,5.0,5.0,98,0.00,,,0.00,Wunderground v.1.15,2013-04-29 08:18:00,
2013-04-29 04:20:00,40.6,40.1,29.89,South,169,5.0,5.0,98,0.00,,,0.00,Wunderground v.1.15,2013-04-29 08:20:00,
2013-04-29 04:21:00,40.6,40.1,29.89,SSE,168,5.0,6.0,98,0.00,,,0.00,Wunderground v.1.15,2013-04-29 08:21:00,
2013-04-29 04:22:00,40.7,40.2,29.89,SSE,167,5.0,6.0,98,0.00,,,0.00,Wunderground v.1.15,2013-04-29 08:22:00,
2013-04-29 04:23:00,40.7,40.2,29.89,SSE,167,5.0,6.0,98,0.00,,,0.00,Wunderground v.1.15,2013-04-29 08:23:00,
2013-04-29 04:25:00,40.7,40.2,29.88,SSE,165,5.0,6.0,98,0.00,,,0.00,Wunderground v.1.15,2013-04-29 08:25:00,
2013-04-29 04:27:00,40.8,40.3,29.88,SSE,165,5.0,6.0,98,0.00,,,0.00,Wunderground v.1.15,2013-04-29 08:27:00,
2013-04-29 04:28:00,40.8,40.3,29.88,SSE,165,5.0,6.0,98,0.00,,,0.00,Wunderground v.1.15,2013-04-29 08:28:00,
2013-04-29 04:31:00,40.9,40.4,29.88,SSE,164,5.0,6.0,98,0.00,,,0.00,Wunderground v.1.15,2013-04-29 08:31:00,
2013-04-29 04:32:00,40.9,40.4,29.88,SSE,164,5.0,6.0,98,0.00,,,0.00,Wunderground v.1.15,2013-04-29 08:32:00,
2013-04-29 04:33:00,40.9,40.4,29.88,SSE,164,6.0,6.0,98,0.00,,,0.00,Wunderground v.1.15,2013-04-29 08:33:00,
2013-04-29 04:36:00,41.0,40.5,29.88,SSE,164,5.0,6.0,98,0.00,,,0.00,Wunderground v.1.15,2013-04-29 08:36:00,
2013-04-29 04:37:00,41.0,40.5,29.88,SSE,164,6.0,6.0,98,0.00,,,0.00,Wunderground v.1.15,2013-04-29 08:37:00,
2013-04-29 04:38:00,41.0,40.5,29.88,SSE,164,6.0,6.0,98,0.00,,,0.00,Wunderground v.1.15,2013-04-29 08:38:00,
2013-04-29 04:39:00,41.0,41.0,29.88,SSE,164,6.0,6.0,100,0.00,,,0.00,Wunderground v.1.15,2013-04-29 08:39:00,
2013-04-29 04:42:00,41.0,40.5,29.88,SSE,164,6.0,6.0,98,0.00,,,0.00,Wunderground v.1.15,2013-04-29 08:42:00,
2013-04-29 04:43:00,41.1,40.6,29.88,SSE,164,5.0,6.0,98,0.00,,,0.00,Wunderground v.1.15,2013-04-29 08:43:00,
2013-04-29 04:44:00,41.1,40.6,29.88,SSE,164,5.0,6.0,98,0.00,,,0.00,Wunderground v.1.15,2013-04-29 08:44:00,
2013-04-29 04:47:00,41.1,40.6,29.88,SSE,164,6.0,6.0,98,0.00,,,0.00,Wunderground v.1.15,2013-04-29 08:47:00,
2013-04-29 04:48:00,41.1,40.6,29.88,SSE,164,6.0,6.0,98,0.00,,,0.00,Wunderground v.1.15,2013-04-29 08:48:00,
2013-04-29 04:49:00,41.1,40.6,29.88,SSE,164,5.0,6.0,98,0.00,,,0.00,Wunderground v.1.15,2013-04-29 08:49:00,
2013-04-29 04:52:00,41.1,40.6,29.89,SSE,164,5.0,6.0,98,0.00,,,0.00,Wunderground v.1.15,2013-04-29 08:52:00,
2013-04-29 04:54:00,41.1,40.6,29.89,SSE,164,5.0,6.0,98,0.00,,,0.00,Wunderground v.1.15,2013-04-29 08:54:00,
2013-04-29 04:58:00,41.1,40.6,29.89,SSE,160,6.0,7.0,98,0.00,,,0.00,Wunderground v.1.15,2013-04-29 08:58:00,
2013-04-29 04:59:00,41.1,40.6,29.89,SSE,160,6.0,7.0,98,0.00,,,0.00,Wunderground v.1.15,2013-04-29 08:59:00,
2013-04-29 05:00:00,41.1,40.6,29.89,SSE,160,6.0,7.0,98,0.00,,,0.00,Wunderground v.1.15,2013-04-29 09:00:00,
2013-04-29 05:03:00,41.2,40.7,29.89,SSE,159,5.0,6.0,98,0.00,,,0.01,Wunderground v.1.15,2013-04-29 09:03:00,
2013-04-29 05:04:00,41.2,40.7,29.89,SSE,159,4.0,6.0,98,0.00,,,0.01,Wunderground v.1.15,2013-04-29 09:04:00,
2013-04-29 05:05:00,41.3,40.8,29.89,SSE,159,5.0,6.0,98,0.00,,,0.01,Wunderground v.1.15,2013-04-29 09:05:00,
2013-04-29 05:06:00,41.3,40.8,29.89,SSE,159,5.0,6.0,98,0.00,,,0.01,Wunderground v.1.15,2013-04-29 09:06:00,
2013-04-29 05:09:00,41.4,40.9,29.89,SSE,159,5.0,6.0,98,0.00,,,0.01,Wunderground v.1.15,2013-04-29 09:09:00,
2013-04-29 05:10:00,41.4,40.9,29.89,SSE,159,5.0,5.0,98,0.00,,,0.01,Wunderground v.1.15,2013-04-29 09:10:00,
2013-04-29 05:11:00,41.4,40.9,29.89,SSE,159,5.0,5.0,98,0.00,,,0.01,Wunderground v.1.15,2013-04-29 09:11:00,
2013-04-29 05:14:00,41.5,41.0,29.89,SSE,159,5.0,5.0,98,0.00,,,0.01,Wunderground v.1.15,2013-04-29 09:14:00,
2013-04-29 05:15:00,41.5,41.0,29.89,SSE,159,4.0,5.0,98,0.00,,,0.01,Wunderground v.1.15,2013-04-29 09:15:00,
2013-04-29 05:16:00,41.5,41.0,29.89,SSE,159,5.0,6.0,98,0.00,,,0.01,Wunderground v.1.15,2013-04-29 09:16:00,
2013-04-29 05:19:00,41.5,41.0,29.89,SSE,159,5.0,6.0,98,0.00,,,0.01,Wunderground v.1.15,2013-04-29 09:19:00,
2013-04-29 05:20:00,41.5,41.0,29.89,SSE,159,5.0,5.0,98,0.00,,,0.01,Wunderground v.1.15,2013-04-29 09:20:00,
2013-04-29 05:21:00,41.5,41.0,29.89,SSE,159,5.0,6.0,98,0.00,,,0.01,Wunderground v.1.15,2013-04-29 09:21:00,
2013-04-29 05:25:00,41.5,41.0,29.89,SSE,159,5.0,6.0,98,0.00,,,0.01,Wunderground v.1.15,2013-04-29 09:25:00,
2013-04-29 05:26:00,41.5,41.0,29.89,SSE,159,6.0,6.0,98,0.00,,,0.01,Wunderground v.1.15,2013-04-29 09:26:00,
2013-04-29 05:27:00,41.5,41.0,29.89,SSE,159,5.0,6.0,98,0.00,,,0.01,Wunderground v.1.15,2013-04-29 09:27:00,
2013-04-29 05:30:00,41.5,41.0,29.90,SSE,159,6.0,6.0,98,0.00,,,0.01,Wunderground v.1.15,2013-04-29 09:30:00,
2013-04-29 05:31:00,41.5,41.0,29.90,SSE,159,6.0,6.0,98,0.00,,,0.01,Wunderground v.1.15,2013-04-29 09:31:00,
2013-04-29 05:32:00,41.5,41.0,29.90,SSE,159,5.0,6.0,98,0.00,,,0.01,Wunderground v.1.15,2013-04-29 09:32:00,
2013-04-29 05:33:00,41.5,41.0,29.90,SSE,159,5.0,6.0,98,0.00,,,0.01,Wunderground v.1.15,2013-04-29 09:33:00,
2013-04-29 05:35:00,41.5,41.0,29.90,SSE,159,5.0,6.0,98,0.00,,,0.01,Wunderground v.1.15,2013-04-29 09:35:00,
2013-04-29 05:36:00,41.4,40.9,29.90,SSE,159,5.0,6.0,98,0.00,,,0.01,Wunderground v.1.15,2013-04-29 09:36:00,
2013-04-29 05:37:00,41.4,40.9,29.90,SSE,159,5.0,6.0,98,0.00,,,0.01,Wunderground v.1.15,2013-04-29 09:37:00,
2013-04-29 05:38:00,41.4,40.9,29.90,SSE,159,5.0,6.0,98,0.00,,,0.01,Wunderground v.1.15,2013-04-29 09:38:00,
2013-04-29 05:40:00,41.4,40.9,29.90,SSE,157,5.0,5.0,98,0.00,,,0.01,Wunderground v.1.15,2013-04-29 09:40:00,
2013-04-29 05:41:00,41.4,40.9,29.90,SSE,157,4.0,5.0,98,0.00,,,0.01,Wunderground v.1.15,2013-04-29 09:41:00,
2013-04-29 05:42:00,41.4,40.9,29.90,SSE,157,5.0,5.0,98,0.00,,,0.01,Wunderground v.1.15,2013-04-29 09:42:00,
2013-04-29 05:43:00,41.4,40.9,29.90,SSE,157,5.0,6.0,98,0.00,,,0.01,Wunderground v.1.15,2013-04-29 09:43:00,
2013-04-29 05:45:00,41.4,40.9,29.90,SSE,157,6.0,6.0,98,0.00,,,0.01,Wunderground v.1.15,2013-04-29 09:45:00,
2013-04-29 05:46:00,41.4,40.9,29.90,SSE,156,5.0,6.0,98,0.00,,,0.01,Wunderground v.1.15,2013-04-29 09:46:00,
2013-04-29 05:47:00,41.4,40.9,29.90,SSE,155,3.0,6.0,98,0.00,,,0.01,Wunderground v.1.15,2013-04-29 09:47:00,
2013-04-29 05:48:00,41.4,40.9,29.90,SSE,155,5.0,6.0,98,0.00,,,0.01,Wunderground v.1.15,2013-04-29 09:48:00,
2013-04-29 05:51:00,41.3,40.8,29.90,SSE,155,5.0,6.0,98,0.00,,,0.01,Wunderground v.1.15,2013-04-29 09:51:00,
2013-04-29 05:53:00,41.3,40.8,29.90,SSE,155,5.0,6.0,98,0.00,,,0.01,Wunderground v.1.15,2013-04-29 09:53:00,
2013-04-29 05:54:00,41.3,40.8,29.91,SSE,155,6.0,6.0,98,0.00,,,0.01,Wunderground v.1.15,2013-04-29 09:54:00,
2013-04-29 05:56:00,41.3,40.8,29.91,SSE,155,5.0,6.0,98,0.00,,,0.01,Wunderground v.1.15,2013-04-29 09:56:00,
2013-04-29 05:58:00,41.3,40.8,29.91,SSE,155,4.0,6.0,98,0.00,,,0.01,Wunderground v.1.15,2013-04-29 09:58:00,
2013-04-29 05:59:00,41.3,40.8,29.91,SSE,155,5.0,6.0,98,0.00,,,0.01,Wunderground v.1.15,2013-04-29 09:59:00,
2013-04-29 06:01:00,41.3,40.8,29.91,SSE,155,5.0,7.0,98,0.00,,,0.01,Wunderground v.1.15,2013-04-29 10:01:00,
2013-04-29 06:03:00,41.3,40.8,29.91,SSE,156,6.0,7.0,98,0.00,,,0.01,Wunderground v.1.15,2013-04-29 10:03:00,
2013-04-29 06:04:00,41.3,40.8,29.91,SSE,157,6.0,7.0,98,0.00,,,0.01,Wunderground v.1.15,2013-04-29 10:04:00,
2013-04-29 06:06:00,41.3,40.8,29.91,SSE,159,4.0,7.0,98,0.00,,,0.01,Wunderground v.1.15,2013-04-29 10:06:00,
2013-04-29 06:08:00,41.3,40.8,29.91,SSE,159,5.0,7.0,98,0.00,,,0.01,Wunderground v.1.15,2013-04-29 10:08:00,
2013-04-29 06:09:00,41.3,40.8,29.91,SSE,157,4.0,7.0,98,0.00,,,0.01,Wunderground v.1.15,2013-04-29 10:09:00,
2013-04-29 06:11:00,41.3,40.8,29.91,SSE,157,5.0,5.0,98,0.00,,,0.01,Wunderground v.1.15,2013-04-29 10:11:00,
2013-04-29 06:14:00,41.3,40.8,29.91,SSE,156,5.0,5.0,98,0.00,,,0.01,Wunderground v.1.15,2013-04-29 10:14:00,
2013-04-29 06:15:00,41.3,40.8,29.91,SSE,157,4.0,5.0,98,0.00,,,0.01,Wunderground v.1.15,2013-04-29 10:15:00,
2013-04-29 06:17:00,41.3,40.8,29.91,SSE,156,6.0,6.0,98,0.00,,,0.01,Wunderground v.1.15,2013-04-29 10:17:00,
2013-04-29 06:19:00,41.4,40.9,29.91,SSE,163,4.0,6.0,98,0.00,,,0.01,Wunderground v.1.15,2013-04-29 10:19:00,
2013-04-29 06:20:00,41.4,40.9,29.91,SSE,163,3.0,4.0,98,0.00,,,0.01,Wunderground v.1.15,2013-04-29 10:20:00,
2013-04-29 06:22:00,41.4,40.9,29.91,SSE,163,4.0,7.0,98,0.00,,,0.01,Wunderground v.1.15,2013-04-29 10:22:00,
2013-04-29 06:24:00,41.4,40.9,29.91,SSE,162,3.0,7.0,98,0.00,,,0.01,Wunderground v.1.15,2013-04-29 10:24:00,
2013-04-29 06:25:00,41.5,41.0,29.91,SSE,162,4.0,7.0,98,0.00,,,0.01,Wunderground v.1.15,2013-04-29 10:25:00,
2013-04-29 06:27:00,41.6,41.1,29.91,SSE,161,4.0,7.0,98,0.00,,,0.01,Wunderground v.1.15,2013-04-29 10:27:00,
2013-04-29 06:29:00,41.8,41.3,29.91,South,173,4.0,7.0,98,0.00,,,0.01,Wunderground v.1.15,2013-04-29 10:29:00,
2013-04-29 06:30:00,41.8,41.3,29.91,South,173,3.0,4.0,98,0.00,,,0.01,Wunderground v.1.15,2013-04-29 10:30:00,
2013-04-29 06:31:00,41.9,41.4,29.91,SSE,158,4.0,6.0,98,0.00,,,0.01,Wunderground v.1.15,2013-04-29 10:31:00,
2013-04-29 06:33:00,42.0,41.5,29.91,SSE,163,5.0,6.0,98,0.00,,,0.01,Wunderground v.1.15,2013-04-29 10:33:00,
2013-04-29 06:35:00,42.2,41.7,29.91,SSE,160,4.0,6.0,98,0.00,,,0.01,Wunderground v.1.15,2013-04-29 10:35:00,
2013-04-29 06:36:00,42.3,41.8,29.91,SSE,160,4.0,7.0,98,0.00,,,0.01,Wunderground v.1.15,2013-04-29 10:36:00,
2013-04-29 06:38:00,42.4,41.9,29.91,SSE,161,4.0,7.0,98,0.00,,,0.01,Wunderground v.1.15,2013-04-29 10:38:00,
2013-04-29 06:40:00,42.4,41.9,29.92,SSE,160,4.0,5.0,98,0.00,,,0.01,Wunderground v.1.15,2013-04-29 10:40:00,
2013-04-29 06:41:00,42.4,41.9,29.92,SSE,159,5.0,7.0,98,0.00,,,0.01,Wunderground v.1.15,2013-04-29 10:41:00,
2013-04-29 06:44:00,42.3,41.8,29.92,SSE,162,4.0,7.0,98,0.00,,,0.01,Wunderground v.1.15,2013-04-29 10:44:00,
2013-04-29 06:45:00,42.3,41.8,29.92,SSE,158,6.0,7.0,98,0.00,,,0.01,Wunderground v.1.15,2013-04-29 10:45:00,
2013-04-29 06:46:00,42.3,41.8,29.92,SSE,157,6.0,7.0,98,0.00,,,0.01,Wunderground v.1.15,2013-04-29 10:46:00,
2013-04-29 06:49:00,42.3,41.8,29.92,SSE,155,6.0,7.0,98,0.00,,,0.01,Wunderground v.1.15,2013-04-29 10:49:00,
2013-04-29 06:51:00,42.3,41.8,29.92,WSW,250,0.0,6.0,98,0.00,,,0.01,Wunderground v.1.15,2013-04-29 10:51:00,
2013-04-29 06:54:00,42.8,42.5,29.92,South,170,0.0,6.0,99,0.00,,,0.01,Wunderground v.1.15,2013-04-29 10:54:00,
2013-04-29 06:56:00,43.1,42.8,29.92,South,181,1.0,6.0,99,0.00,,,0.01,Wunderground v.1.15,2013-04-29 10:56:00,
2013-04-29 06:57:00,43.3,43.0,29.92,South,180,2.0,6.0,99,0.00,,,0.01,Wunderground v.1.15,2013-04-29 10:57:00,
2013-04-29 07:00:00,44.5,44.2,29.93,SSW,211,1.0,2.0,99,0.00,,,0.01,Wunderground v.1.15,2013-04-29 11:00:00,
2013-04-29 07:01:00,45.1,44.8,29.92,WSW,246,2.0,5.0,99,0.00,,,0.01,Wunderground v.1.15,2013-04-29 11:01:00,
2013-04-29 07:02:00,45.6,45.3,29.92,West,261,1.0,5.0,99,0.00,,,0.01,Wunderground v.1.15,2013-04-29 11:02:00,
2013-04-29 07:05:00,47.0,46.7,29.92,SW,217,2.0,6.0,99,0.00,,,0.01,Wunderground v.1.15,2013-04-29 11:05:00,
2013-04-29 07:06:00,48.2,47.9,29.92,WSW,244,4.0,6.0,99,0.00,,,0.01,Wunderground v.1.15,2013-04-29 11:06:00,
2013-04-29 07:07:00,48.6,48.3,29.92,South,176,0.0,6.0,99,0.00,,,0.01,Wunderground v.1.15,2013-04-29 11:07:00,
2013-04-29 07:08:00,49.1,48.8,29.93,WSW,252,3.0,6.0,99,0.00,,,0.01,Wunderground v.1.15,2013-04-29 11:08:00,
2013-04-29 07:10:00,49.9,49.9,29.92,West,273,4.0,4.0,100,0.00,,,0.01,Wunderground v.1.15,2013-04-29 11:10:00,
2013-04-29 07:12:00,50.6,50.6,29.92,SSW,198,2.0,7.0,100,0.00,,,0.01,Wunderground v.1.15,2013-04-29 11:12:00,
2013-04-29 07:13:00,50.9,50.9,29.93,West,264,3.0,7.0,100,0.00,,,0.01,Wunderground v.1.15,2013-04-29 11:13:00,
2013-04-29 07:15:00,51.0,51.0,29.93,WNW,282,6.0,7.0,100,0.00,,,0.01,Wunderground v.1.15,2013-04-29 11:15:00,
2013-04-29 07:17:00,51.3,51.3,29.93,WSW,256,2.0,7.0,100,0.00,,,0.01,Wunderground v.1.15,2013-04-29 11:17:00,
2013-04-29 07:18:00,51.4,51.4,29.93,WSW,254,1.0,7.0,100,0.00,,,0.01,Wunderground v.1.15,2013-04-29 11:18:00,
2013-04-29 07:21:00,51.5,51.5,29.93,West,262,4.0,5.0,100,0.00,,,0.01,Wunderground v.1.15,2013-04-29 11:21:00,
2013-04-29 07:22:00,51.6,51.6,29.93,SSW,213,1.0,5.0,100,0.00,,,0.01,Wunderground v.1.15,2013-04-29 11:22:00,
2013-04-29 07:23:00,51.6,51.6,29.93,SW,234,4.0,7.0,100,0.00,,,0.01,Wunderground v.1.15,2013-04-29 11:23:00,
2013-04-29 07:24:00,51.7,51.7,29.93,WSW,243,4.0,7.0,100,0.00,,,0.01,Wunderground v.1.15,2013-04-29 11:24:00,
2013-04-29 07:26:00,51.7,51.7,29.93,SW,221,1.0,7.0,100,0.00,,,0.01,Wunderground v.1.15,2013-04-29 11:26:00,
2013-04-29 07:27:00,51.7,51.7,29.93,West,271,2.0,7.0,100,0.00,,,0.01,Wunderground v.1.15,2013-04-29 11:27:00,
2013-04-29 07:28:00,51.7,51.7,29.93,WSW,257,5.0,9.0,100,0.00,,,0.01,Wunderground v.1.15,2013-04-29 11:28:00,
2013-04-29 07:29:00,51.7,51.7,29.93,West,272,6.0,9.0,100,0.00,,,0.01,Wunderground v.1.15,2013-04-29 11:29:00,
2013-04-29 07:31:00,51.7,51.7,29.93,West,265,1.0,5.0,100,0.00,,,0.01,Wunderground v.1.15,2013-04-29 11:31:00,
2013-04-29 07:32:00,51.7,51.7,29.93,WSW,257,4.0,5.0,100,0.00,,,0.01,Wunderground v.1.15,2013-04-29 11:32:00,
2013-04-29 07:33:00,51.7,51.7,29.93,WSW,257,1.0,5.0,100,0.00,,,0.01,Wunderground v.1.15,2013-04-29 11:33:00,
2013-04-29 07:34:00,51.7,51.7,29.93,West,280,7.0,7.0,100,0.00,,,0.01,Wunderground v.1.15,2013-04-29 11:34:00,
2013-04-29 07:36:00,51.7,51.7,29.93,West,267,6.0,7.0,100,0.00,,,0.01,Wunderground v.1.15,2013-04-29 11:36:00,
2013-04-29 07:37:00,51.7,51.7,29.93,West,267,5.0,7.0,100,0.00,,,0.01,Wunderground v.1.15,2013-04-29 11:37:00,
2013-04-29 07:38:00,51.7,51.7,29.93,WSW,250,3.0,7.0,100,0.00,,,0.01,Wunderground v.1.15,2013-04-29 11:38:00,
2013-04-29 07:39:00,51.7,51.7,29.93,WSW,250,3.0,7.0,100,0.00,,,0.01,Wunderground v.1.15,2013-04-29 11:39:00,
2013-04-29 07:41:00,51.7,51.4,29.93,West,279,3.0,6.0,99,0.00,,,0.01,Wunderground v.1.15,2013-04-29 11:41:00,
2013-04-29 07:43:00,51.7,51.4,29.93,West,263,4.0,6.0,99,0.00,,,0.01,Wunderground v.1.15,2013-04-29 11:43:00,
2013-04-29 07:44:00,51.7,51.4,29.94,West,272,5.0,6.0,99,0.00,,,0.01,Wunderground v.1.15,2013-04-29 11:44:00,
2013-04-29 07:47:00,51.7,51.4,29.94,WSW,252,4.0,7.0,99,0.00,,,0.01,Wunderground v.1.15,2013-04-29 11:47:00,
2013-04-29 07:48:00,51.6,51.3,29.94,West,275,4.0,9.0,99,0.00,,,0.01,Wunderground v.1.15,2013-04-29 11:48:00,
2013-04-29 07:49:00,51.6,51.3,29.94,West,264,4.0,9.0,99,0.00,,,0.01,Wunderground v.1.15,2013-04-29 11:49:00,
2013-04-29 07:52:00,51.6,51.3,29.94,WSW,254,1.0,7.0,99,0.00,,,0.01,Wunderground v.1.15,2013-04-29 11:52:00,
2013-04-29 07:53:00,51.6,51.3,29.94,West,265,3.0,7.0,99,0.00,,,0.01,Wunderground v.1.15,2013-04-29 11:53:00,
2013-04-29 07:54:00,51.7,51.4,29.94,West,266,0.0,7.0,99,0.00,,,0.01,Wunderground v.1.15,2013-04-29 11:54:00,
2013-04-29 07:55:00,51.7,51.4,29.94,West,276,5.0,7.0,99,0.00,,,0.01,Wunderground v.1.15,2013-04-29 11:55:00,
2013-04-29 07:57:00,51.7,51.4,29.94,West,264,1.0,7.0,99,0.00,,,0.01,Wunderground v.1.15,2013-04-29 11:57:00,
2013-04-29 07:58:00,51.7,51.4,29.94,WSW,247,2.0,7.0,99,0.00,,,0.01,Wunderground v.1.15,2013-04-29 11:58:00,
2013-04-29 07:59:00,51.7,51.4,29.94,West,260,1.0,7.0,99,0.00,,,0.01,Wunderground v.1.15,2013-04-29 11:59:00,
2013-04-29 08:00:00,51.7,51.4,29.94,WSW,251,3.0,3.0,99,0.00,,,0.01,Wunderground v.1.15,2013-04-29 12:00:00,
2013-04-29 08:02:00,51.7,51.4,29.94,West,268,4.0,7.0,99,0.00,,,0.01,Wunderground v.1.15,2013-04-29 12:02:00,
2013-04-29 08:03:00,51.7,51.4,29.94,West,262,2.0,7.0,99,0.00,,,0.01,Wunderground v.1.15,2013-04-29 12:03:00,
2013-04-29 08:04:00,51.8,51.5,29.94,WNW,294,3.0,9.0,99,0.00,,,0.01,Wunderground v.1.15,2013-04-29 12:04:00,
2013-04-29 08:05:00,51.8,51.5,29.95,WSW,256,0.0,9.0,99,0.00,,,0.01,Wunderground v.1.15,2013-04-29 12:05:00,
2013-04-29 08:06:00,51.8,51.5,29.94,West,273,2.0,9.0,99,0.00,,,0.01,Wunderground v.1.15,2013-04-29 12:06:00,
2013-04-29 08:08:00,51.8,51.5,29.95,WSW,250,4.0,10.0,99,0.00,,,0.01,Wunderground v.1.15,2013-04-29 12:08:00,
2013-04-29 08:09:00,51.8,51.5,29.95,WSW,242,1.0,10.0,99,0.00,,,0.01,Wunderground v.1.15,2013-04-29 12:09:00,
2013-04-29 08:10:00,51.8,51.5,29.95,West,260,4.0,7.0,99,0.00,,,0.01,Wunderground v.1.15,2013-04-29 12:10:00,
2013-04-29 08:12:00,51.8,51.5,29.95,WSW,246,0.0,7.0,99,0.00,,,0.01,Wunderground v.1.15,2013-04-29 12:12:00,
2013-04-29 08:13:00,51.8,51.5,29.94,WSW,249,2.0,7.0,99,0.00,,,0.01,Wunderground v.1.15,2013-04-29 12:13:00,
2013-04-29 08:14:00,51.8,51.5,29.95,West,267,5.0,7.0,99,0.00,,,0.01,Wunderground v.1.15,2013-04-29 12:14:00,
2013-04-29 08:16:00,51.8,51.5,29.95,West,264,2.0,9.0,99,0.00,,,0.01,Wunderground v.1.15,2013-04-29 12:16:00,
2013-04-29 08:18:00,51.8,51.5,29.95,West,264,5.0,9.0,99,0.00,,,0.01,Wunderground v.1.15,2013-04-29 12:18:00,
2013-04-29 08:19:00,51.8,51.5,29.95,WSW,256,7.0,9.0,99,0.00,,,0.01,Wunderground v.1.15,2013-04-29 12:19:00,
2013-04-29 08:20:00,51.8,51.5,29.95,West,261,3.0,4.0,99,0.00,,,0.01,Wunderground v.1.15,2013-04-29 12:20:00,
2013-04-29 08:22:00,51.8,51.5,29.95,SSW,195,2.0,6.0,99,0.00,,,0.01,Wunderground v.1.15,2013-04-29 12:22:00,
2013-04-29 08:23:00,51.8,51.5,29.95,West,275,5.0,7.0,99,0.00,,,0.01,Wunderground v.1.15,2013-04-29 12:23:00,
2013-04-29 08:24:00,51.8,51.5,29.95,West,273,3.0,7.0,99,0.00,,,0.01,Wunderground v.1.15,2013-04-29 12:24:00,
2013-04-29 08:25:00,51.8,51.5,29.95,WSW,247,5.0,7.0,99,0.00,,,0.01,Wunderground v.1.15,2013-04-29 12:25:00,
2013-04-29 08:27:00,51.8,51.5,29.95,West,271,1.0,8.0,99,0.00,,,0.01,Wunderground v.1.15,2013-04-29 12:27:00,
2013-04-29 08:29:00,51.7,51.4,29.95,WSW,252,4.0,8.0,99,0.00,,,0.01,Wunderground v.1.15,2013-04-29 12:29:00,
2013-04-29 08:30:00,51.7,51.4,29.95,West,263,3.0,9.0,99,0.00,,,0.01,Wunderground v.1.15,2013-04-29 12:30:00,
2013-04-29 08:32:00,51.7,51.4,29.95,SW,236,2.0,9.0,99,0.00,,,0.01,Wunderground v.1.15,2013-04-29 12:32:00,
2013-04-29 08:34:00,51.6,51.3,29.95,West,264,3.0,9.0,99,0.00,,,0.01,Wunderground v.1.15,2013-04-29 12:34:00,
2013-04-29 08:35:00,51.6,51.3,29.95,West,268,5.0,9.0,99,0.00,,,0.01,Wunderground v.1.15,2013-04-29 12:35:00,
2013-04-29 08:37:00,51.5,51.2,29.95,West,279,4.0,12.0,99,0.00,,,0.01,Wunderground v.1.15,2013-04-29 12:37:00,
2013-04-29 08:39:00,51.5,51.2,29.96,West,272,4.0,12.0,99,0.00,,,0.01,Wunderground v.1.15,2013-04-29 12:39:00,
2013-04-29 08:40:00,51.5,51.2,29.95,South,173,4.0,12.0,99,0.00,,,0.01,Wunderground v.1.15,2013-04-29 12:40:00,
2013-04-29 08:41:00,51.4,51.1,29.95,WSW,237,5.0,10.0,99,0.00,,,0.01,Wunderground v.1.15,2013-04-29 12:41:00,
2013-04-29 08:42:00,51.4,51.1,29.95,West,261,4.0,10.0,99,0.00,,,0.01,Wunderground v.1.15,2013-04-29 12:42:00,
2013-04-29 08:44:00,51.4,51.1,29.96,West,273,6.0,10.0,99,0.00,,,0.01,Wunderground v.1.15,2013-04-29 12:44:00,
2013-04-29 08:45:00,51.4,51.1,29.96,West,279,6.0,10.0,99,0.00,,,0.01,Wunderground v.1.15,2013-04-29 12:45:00,
2013-04-29 08:46:00,51.3,50.8,29.96,West,273,5.0,10.0,98,0.00,,,0.01,Wunderground v.1.15,2013-04-29 12:46:00,
2013-04-29 08:47:00,51.3,51.0,29.96,West,277,5.0,10.0,99,0.00,,,0.01,Wunderground v.1.15,2013-04-29 12:47:00,
2013-04-29 08:49:00,51.3,50.8,29.96,West,260,2.0,10.0,98,0.00,,,0.01,Wunderground v.1.15,2013-04-29 12:49:00,
2013-04-29 08:50:00,51.3,50.8,29.96,WSW,249,3.0,5.0,98,0.00,,,0.01,Wunderground v.1.15,2013-04-29 12:50:00,
2013-04-29 08:51:00,51.3,50.8,29.96,SW,221,3.0,5.0,98,0.00,,,0.01,Wunderground v.1.15,2013-04-29 12:51:00,
2013-04-29 08:53:00,51.3,50.8,29.96,West,279,3.0,5.0,98,0.00,,,0.01,Wunderground v.1.15,2013-04-29 12:53:00,
2013-04-29 08:55:00,51.3,50.8,29.96,WNW,288,4.0,9.0,98,0.00,,,0.01,Wunderground v.1.15,2013-04-29 12:55:00,
2013-04-29 08:56:00,51.3,50.8,29.96,WNW,300,2.0,9.0,98,0.00,,,0.01,Wunderground v.1.15,2013-04-29 12:56:00,
2013-04-29 08:57:00,51.3,50.8,29.96,WNW,295,2.0,9.0,98,0.00,,,0.01,Wunderground v.1.15,2013-04-29 12:57:00,
2013-04-29 08:58:00,51.3,50.8,29.95,WSW,257,6.0,9.0,98,0.00,,,0.01,Wunderground v.1.15,2013-04-29 12:58:00,
2013-04-29 09:00:00,51.3,50.8,29.95,SW,232,4.0,6.0,98,0.00,,,0.01,Wunderground v.1.15,2013-04-29 13:00:00,
2013-04-29 09:01:00,51.3,50.8,29.95,West,261,4.0,6.0,98,0.00,,,0.01,Wunderground v.1.15,2013-04-29 13:01:00,
2013-04-29 09:02:00,51.3,50.8,29.95,West,261,1.0,6.0,98,0.00,,,0.01,Wunderground v.1.15,2013-04-29 13:02:00,
2013-04-29 09:03:00,51.3,50.8,29.95,SW,236,1.0,6.0,98,0.00,,,0.01,Wunderground v.1.15,2013-04-29 13:03:00,
2013-04-29 09:05:00,51.4,50.9,29.95,WNW,292,2.0,10.0,98,0.00,,,0.01,Wunderground v.1.15,2013-04-29 13:05:00,
2013-04-29 09:07:00,51.4,50.9,29.95,West,263,3.0,10.0,98,0.00,,,0.01,Wunderground v.1.15,2013-04-29 13:07:00,
2013-04-29 09:09:00,51.4,50.9,29.95,West,265,4.0,10.0,98,0.00,,,0.01,Wunderground v.1.15,2013-04-29 13:09:00,
2013-04-29 09:10:00,51.4,50.9,29.95,West,260,2.0,4.0,98,0.00,,,0.01,Wunderground v.1.15,2013-04-29 13:10:00,
2013-04-29 09:11:00,51.4,50.9,29.95,WNW,300,6.0,6.0,98,0.00,,,0.01,Wunderground v.1.15,2013-04-29 13:11:00,
2013-04-29 09:12:00,51.5,51.0,29.95,West,274,3.0,6.0,98,0.00,,,0.01,Wunderground v.1.15,2013-04-29 13:12:00,
2013-04-29 09:13:00,51.5,51.0,29.95,West,268,4.0,6.0,98,0.00,,,0.01,Wunderground v.1.15,2013-04-29 13:13:00,
2013-04-29 09:14:00,51.5,51.0,29.95,West,260,3.0,6.0,98,0.00,,,0.01,Wunderground v.1.15,2013-04-29 13:14:00,
2013-04-29 09:15:00,51.5,51.0,29.95,West,265,0.0,6.0,98,0.00,,,0.01,Wunderground v.1.15,2013-04-29 13:15:00,
2013-04-29 09:17:00,51.6,51.1,29.95,WSW,244,4.0,10.0,98,0.00,,,0.01,Wunderground v.1.15,2013-04-29 13:17:00,
2013-04-29 09:18:00,51.6,51.1,29.95,WSW,257,1.0,10.0,98,0.00,,,0.01,Wunderground v.1.15,2013-04-29 13:18:00,
2013-04-29 09:19:00,51.6,51.1,29.95,West,269,5.0,10.0,98,0.00,,,0.01,Wunderground v.1.15,2013-04-29 13:19:00,
2013-04-29 09:21:00,51.6,51.1,29.95,WSW,248,6.0,7.0,98,0.00,,,0.01,Wunderground v.1.15,2013-04-29 13:21:00,
2013-04-29 09:22:00,51.6,51.1,29.95,South,182,3.0,7.0,98,0.00,,,0.01,Wunderground v.1.15,2013-04-29 13:22:00,
2013-04-29 09:23:00,51.6,51.1,29.95,West,262,2.0,7.0,98,0.00,,,0.01,Wunderground v.1.15,2013-04-29 13:23:00,
2013-04-29 09:25:00,51.6,51.1,29.95,West,281,5.0,8.0,98,0.00,,,0.01,Wunderground v.1.15,2013-04-29 13:25:00,
2013-04-29 09:26:00,51.7,51.2,29.95,WSW,242,1.0,8.0,98,0.00,,,0.01,Wunderground v.1.15,2013-04-29 13:26:00,
2013-04-29 09:27:00,51.7,51.2,29.95,WSW,257,2.0,8.0,98,0.00,,,0.01,Wunderground v.1.15,2013-04-29 13:27:00,
2013-04-29 09:28:00,51.7,51.2,29.95,West,259,4.0,8.0,98,0.00,,,0.01,Wunderground v.1.15,2013-04-29 13:28:00,
2013-04-29 09:30:00,51.8,51.3,29.95,WSW,258,3.0,10.0,98,0.00,,,0.01,Wunderground v.1.15,2013-04-29 13:30:00,
2013-04-29 09:31:00,51.8,51.3,29.95,SW,236,4.0,10.0,98,0.00,,,0.01,Wunderground v.1.15,2013-04-29 13:31:00,
2013-04-29 09:32:00,51.8,51.3,29.95,West,260,6.0,10.0,98,0.00,,,0.01,Wunderground v.1.15,2013-04-29 13:32:00,
2013-04-29 09:33:00,51.8,51.3,29.95,WSW,252,5.0,10.0,98,0.00,,,0.01,Wunderground v.1.15,2013-04-29 13:33:00,
2013-04-29 09:35:00,51.9,51.1,29.95,West,268,2.0,10.0,97,0.00,,,0.01,Wunderground v.1.15,2013-04-29 13:35:00,
2013-04-29 09:36:00,51.9,51.1,29.95,West,270,2.0,10.0,97,0.00,,,0.01,Wunderground v.1.15,2013-04-29 13:36:00,
2013-04-29 09:38:00,51.9,51.1,29.95,West,265,3.0,10.0,97,0.00,,,0.01,Wunderground v.1.15,2013-04-29 13:38:00,
2013-04-29 09:39:00,51.9,51.1,29.95,WSW,257,5.0,10.0,97,0.00,,,0.01,Wunderground v.1.15,2013-04-29 13:39:00,
2013-04-29 09:41:00,52.0,51.2,29.95,WNW,302,3.0,5.0,97,0.00,,,0.01,Wunderground v.1.15,2013-04-29 13:41:00,
2013-04-29 09:43:00,52.0,51.2,29.95,WSW,252,3.0,7.0,97,0.00,,,0.01,Wunderground v.1.15,2013-04-29 13:43:00,
2013-04-29 09:44:00,52.0,51.2,29.94,West,263,2.0,9.0,97,0.00,,,0.01,Wunderground v.1.15,2013-04-29 13:44:00,
2013-04-29 09:46:00,52.1,51.3,29.94,WSW,246,4.0,9.0,97,0.00,,,0.01,Wunderground v.1.15,2013-04-29 13:46:00,
2013-04-29 09:48:00,52.1,51.3,29.94,WSW,257,6.0,9.0,97,0.00,,,0.01,Wunderground v.1.15,2013-04-29 13:48:00,
2013-04-29 09:50:00,52.2,51.4,29.94,WNW,289,4.0,9.0,97,0.00,,,0.01,Wunderground v.1.15,2013-04-29 13:50:00,
2013-04-29 09:51:00,52.2,51.4,29.94,West,265,6.0,9.0,97,0.00,,,0.01,Wunderground v.1.15,2013-04-29 13:51:00,
2013-04-29 09:53:00,52.2,51.4,29.94,West,281,4.0,9.0,97,0.00,,,0.01,Wunderground v.1.15,2013-04-29 13:53:00,
2013-04-29 09:54:00,52.3,51.5,29.94,WNW,287,6.0,9.0,97,0.00,,,0.01,Wunderground v.1.15,2013-04-29 13:54:00,
2013-04-29 09:56:00,52.4,51.3,29.94,West,264,2.0,12.0,96,0.00,,,0.01,Wunderground v.1.15,2013-04-29 13:56:00,
2013-04-29 09:58:00,52.4,51.3,29.94,West,265,4.0,12.0,96,0.00,,,0.01,Wunderground v.1.15,2013-04-29 13:58:00,
2013-04-29 09:59:00,52.4,51.3,29.94,WSW,257,5.0,12.0,96,0.00,,,0.01,Wunderground v.1.15,2013-04-29 13:59:00,
2013-04-29 10:01:00,52.5,51.4,29.94,West,262,1.0,7.0,96,0.00,,,0.01,Wunderground v.1.15,2013-04-29 14:01:00,
2013-04-29 10:02:00,52.6,51.5,29.94,West,264,6.0,7.0,96,0.00,,,0.01,Wunderground v.1.15,2013-04-29 14:02:00,
2013-04-29 10:03:00,52.6,51.5,29.94,West,260,3.0,7.0,96,0.00,,,0.01,Wunderground v.1.15,2013-04-29 14:03:00,
2013-04-29 10:04:00,52.7,51.6,29.94,WSW,248,3.0,7.0,96,0.00,,,0.01,Wunderground v.1.15,2013-04-29 14:04:00,
2013-04-29 10:06:00,52.7,51.6,29.94,WSW,258,4.0,10.0,96,0.00,,,0.01,Wunderground v.1.15,2013-04-29 14:06:00,
2013-04-29 10:07:00,52.8,51.7,29.94,West,269,5.0,10.0,96,0.00,,,0.01,Wunderground v.1.15,2013-04-29 14:07:00,
2013-04-29 10:08:00,52.8,51.4,29.94,WNW,284,0.0,10.0,95,0.00,,,0.01,Wunderground v.1.15,2013-04-29 14:08:00,
2013-04-29 10:09:00,52.8,51.4,29.94,SW,236,3.0,10.0,95,0.00,,,0.01,Wunderground v.1.15,2013-04-29 14:09:00,
2013-04-29 10:10:00,52.8,51.4,29.94,WSW,249,5.0,7.0,95,0.00,,,0.01,Wunderground v.1.15,2013-04-29 14:10:00,
2013-04-29 10:11:00,52.9,51.5,29.94,West,279,5.0,7.0,95,0.00,,,0.01,Wunderground v.1.15,2013-04-29 14:11:00,
2013-04-29 10:12:00,52.9,51.5,29.94,West,265,5.0,8.0,95,0.00,,,0.01,Wunderground v.1.15,2013-04-29 14:12:00,
2013-04-29 10:13:00,52.9,51.5,29.94,SW,223,4.0,8.0,95,0.00,,,0.01,Wunderground v.1.15,2013-04-29 14:13:00,
2013-04-29 10:15:00,53.0,51.6,29.94,WSW,256,5.0,8.0,95,0.00,,,0.01,Wunderground v.1.15,2013-04-29 14:15:00,
2013-04-29 10:16:00,53.1,51.7,29.94,WSW,250,4.0,8.0,95,0.00,,,0.01,Wunderground v.1.15,2013-04-29 14:16:00,
2013-04-29 10:17:00,53.1,51.7,29.94,WNW,301,6.0,8.0,95,0.00,,,0.01,Wunderground v.1.15,2013-04-29 14:17:00,
2013-04-29 10:19:00,53.2,51.8,29.94,West,277,3.0,8.0,95,0.00,,,0.01,Wunderground v.1.15,2013-04-29 14:19:00,
2013-04-29 10:21:00,53.2,51.5,29.94,WSW,249,4.0,7.0,94,0.00,,,0.01,Wunderground v.1.15,2013-04-29 14:21:00,
2013-04-29 10:22:00,53.3,51.6,29.94,West,266,2.0,7.0,94,0.00,,,0.01,Wunderground v.1.15,2013-04-29 14:22:00,
2013-04-29 10:23:00,53.3,51.6,29.94,West,261,3.0,7.0,94,0.00,,,0.01,Wunderground v.1.15,2013-04-29 14:23:00,
2013-04-29 10:24:00,53.3,51.6,29.94,WSW,250,4.0,7.0,94,0.00,,,0.01,Wunderground v.1.15,2013-04-29 14:24:00,
2013-04-29 10:26:00,53.4,51.7,29.94,West,269,7.0,10.0,94,0.00,,,0.01,Wunderground v.1.15,2013-04-29 14:26:00,
2013-04-29 10:27:00,53.4,51.7,29.94,WSW,244,7.0,10.0,94,0.00,,,0.01,Wunderground v.1.15,2013-04-29 14:27:00,
2013-04-29 10:28:00,53.5,51.5,29.94,WSW,252,6.0,10.0,93,0.00,,,0.01,Wunderground v.1.15,2013-04-29 14:28:00,
2013-04-29 10:29:00,53.5,51.5,29.94,West,278,7.0,10.0,93,0.00,,,0.01,Wunderground v.1.15,2013-04-29 14:29:00,
2013-04-29 10:32:00,53.5,51.5,29.94,West,266,3.0,6.0,93,0.00,,,0.01,Wunderground v.1.15,2013-04-29 14:32:00,
2013-04-29 10:33:00,53.6,51.6,29.94,WSW,246,5.0,6.0,93,0.00,,,0.01,Wunderground v.1.15,2013-04-29 14:33:00,
2013-04-29 10:34:00,53.7,51.7,29.94,SW,229,3.0,6.0,93,0.00,,,0.01,Wunderground v.1.15,2013-04-29 14:34:00,
2013-04-29 10:37:00,53.8,51.8,29.94,WSW,250,5.0,9.0,93,0.00,,,0.01,Wunderground v.1.15,2013-04-29 14:37:00,
2013-04-29 10:38:00,53.8,51.8,29.94,NNW,329,2.0,9.0,93,0.00,,,0.01,Wunderground v.1.15,2013-04-29 14:38:00,
2013-04-29 10:39:00,53.9,51.6,29.94,WSW,258,1.0,10.0,92,0.00,,,0.01,Wunderground v.1.15,2013-04-29 14:39:00,
2013-04-29 10:42:00,54.0,51.7,29.94,WNW,287,4.0,9.0,92,0.00,,,0.01,Wunderground v.1.15,2013-04-29 14:42:00,
2013-04-29 10:43:00,54.1,51.8,29.94,WSW,257,5.0,9.0,92,0.00,,,0.01,Wunderground v.1.15,2013-04-29 14:43:00,
2013-04-29 10:44:00,54.1,51.8,29.94,WNW,299,1.0,11.0,92,0.00,,,0.01,Wunderground v.1.15,2013-04-29 14:44:00,
2013-04-29 10:45:00,54.1,51.8,29.95,WSW,249,7.0,11.0,92,0.00,,,0.01,Wunderground v.1.15,2013-04-29 14:45:00,
2013-04-29 10:47:00,54.2,51.9,29.95,WSW,254,4.0,11.0,92,0.00,,,0.01,Wunderground v.1.15,2013-04-29 14:47:00,
2013-04-29 10:48:00,54.2,51.9,29.95,WSW,245,1.0,11.0,92,0.00,,,0.01,Wunderground v.1.15,2013-04-29 14:48:00,
2013-04-29 10:49:00,54.3,52.0,29.95,SW,225,2.0,11.0,92,0.00,,,0.01,Wunderground v.1.15,2013-04-29 14:49:00,
2013-04-29 10:50:00,54.4,52.1,29.95,West,260,5.0,7.0,92,0.00,,,0.01,Wunderground v.1.15,2013-04-29 14:50:00,
2013-04-29 10:53:00,54.5,51.9,29.94,WSW,249,4.0,9.0,91,0.00,,,0.01,Wunderground v.1.15,2013-04-29 14:53:00,
2013-04-29 10:54:00,54.6,52.0,29.94,WNW,301,6.0,9.0,91,0.00,,,0.01,Wunderground v.1.15,2013-04-29 14:54:00,
2013-04-29 10:55:00,54.7,52.1,29.94,West,266,6.0,9.0,91,0.00,,,0.01,Wunderground v.1.15,2013-04-29 14:55:00,
2013-04-29 10:58:00,54.9,52.3,29.94,NW,314,3.0,9.0,91,0.00,,,0.01,Wunderground v.1.15,2013-04-29 14:58:00,
2013-04-29 10:59:00,55.0,52.1,29.94,WSW,240,7.0,12.0,90,0.00,,,0.01,Wunderground v.1.15,2013-04-29 14:59:00,
2013-04-29 11:01:00,55.1,52.2,29.94,WSW,256,6.0,7.0,90,0.00,,,0.01,Wunderground v.1.15,2013-04-29 15:01:00,
2013-04-29 11:02:00,55.2,52.3,29.94,WSW,256,10.0,10.0,90,0.00,,,0.01,Wunderground v.1.15,2013-04-29 15:02:00,
2013-04-29 11:03:00,55.3,52.4,29.94,West,267,8.0,10.0,90,0.00,,,0.01,Wunderground v.1.15,2013-04-29 15:03:00,
2013-04-29 11:05:00,55.4,52.5,29.94,West,268,6.0,10.0,90,0.00,,,0.01,Wunderground v.1.15,2013-04-29 15:05:00,
2013-04-29 11:06:00,55.5,52.6,29.94,WSW,250,6.0,10.0,90,0.00,,,0.01,Wunderground v.1.15,2013-04-29 15:06:00,
2013-04-29 11:08:00,55.6,52.4,29.94,West,269,4.0,10.0,89,0.00,,,0.01,Wunderground v.1.15,2013-04-29 15:08:00,
2013-04-29 11:09:00,55.7,52.5,29.94,West,271,1.0,10.0,89,0.00,,,0.01,Wunderground v.1.15,2013-04-29 15:09:00,
2013-04-29 11:10:00,55.7,52.5,29.94,WSW,237,3.0,5.0,89,0.00,,,0.01,Wunderground v.1.15,2013-04-29 15:10:00,
2013-04-29 11:12:00,55.9,52.7,29.94,West,264,4.0,8.0,89,0.00,,,0.01,Wunderground v.1.15,2013-04-29 15:12:00,
2013-04-29 11:13:00,56.0,52.8,29.94,WNW,296,6.0,9.0,89,0.00,,,0.01,Wunderground v.1.15,2013-04-29 15:13:00,
2013-04-29 11:14:00,56.0,52.5,29.94,WSW,255,0.0,10.0,88,0.00,,,0.01,Wunderground v.1.15,2013-04-29 15:14:00,
2013-04-29 11:15:00,56.1,52.6,29.94,West,271,3.0,10.0,88,0.00,,,0.01,Wunderground v.1.15,2013-04-29 15:15:00,
2013-04-29 11:17:00,56.2,52.7,29.94,WNW,282,7.0,11.0,88,0.00,,,0.01,Wunderground v.1.15,2013-04-29 15:17:00,
2013-04-29 11:18:00,56.3,52.8,29.94,West,265,6.0,11.0,88,0.00,,,0.01,Wunderground v.1.15,2013-04-29 15:18:00,
2013-04-29 11:19:00,56.3,52.5,29.94,WSW,250,5.0,11.0,87,0.00,,,0.01,Wunderground v.1.15,2013-04-29 15:19:00,
2013-04-29 11:20:00,56.3,52.5,29.94,WSW,238,4.0,6.0,87,0.00,,,0.01,Wunderground v.1.15,2013-04-29 15:20:00,
2013-04-29 11:23:00,56.4,52.6,29.94,WSW,258,4.0,11.0,87,0.00,,,0.01,Wunderground v.1.15,2013-04-29 15:23:00,
2013-04-29 11:24:00,56.4,52.6,29.94,WSW,252,8.0,11.0,87,0.00,,,0.01,Wunderground v.1.15,2013-04-29 15:24:00,
2013-04-29 11:25:00,56.4,52.6,29.94,West,275,5.0,11.0,87,0.00,,,0.01,Wunderground v.1.15,2013-04-29 15:25:00,
2013-04-29 11:28:00,56.6,52.8,29.94,SW,218,3.0,11.0,87,0.00,,,0.01,Wunderground v.1.15,2013-04-29 15:28:00,
2013-04-29 11:29:00,56.6,52.8,29.94,WSW,237,4.0,11.0,87,0.00,,,0.01,Wunderground v.1.15,2013-04-29 15:29:00,
2013-04-29 11:30:00,56.6,52.8,29.94,WSW,254,10.0,10.0,87,0.00,,,0.01,Wunderground v.1.15,2013-04-29 15:30:00,
2013-04-29 11:34:00,56.9,53.1,29.95,West,272,4.0,10.0,87,0.00,,,0.01,Wunderground v.1.15,2013-04-29 15:34:00,
2013-04-29 11:35:00,56.9,53.1,29.95,North,350,1.0,10.0,87,0.00,,,0.01,Wunderground v.1.15,2013-04-29 15:35:00,
2013-04-29 11:36:00,57.0,53.2,29.95,West,276,4.0,10.0,87,0.00,,,0.01,Wunderground v.1.15,2013-04-29 15:36:00,
2013-04-29 11:39:00,57.2,53.0,29.94,West,260,4.0,10.0,86,0.00,,,0.01,Wunderground v.1.15,2013-04-29 15:39:00,
2013-04-29 11:40:00,57.2,53.0,29.95,NW,325,4.0,5.0,86,0.00,,,0.01,Wunderground v.1.15,2013-04-29 15:40:00,
2013-04-29 11:41:00,57.2,53.0,29.94,SW,236,1.0,8.0,86,0.00,,,0.01,Wunderground v.1.15,2013-04-29 15:41:00,
2013-04-29 11:44:00,57.4,52.9,29.94,West,277,4.0,11.0,85,0.00,,,0.01,Wunderground v.1.15,2013-04-29 15:44:00,
2013-04-29 11:46:00,57.5,53.0,29.94,West,260,9.0,11.0,85,0.00,,,0.01,Wunderground v.1.15,2013-04-29 15:46:00,
2013-04-29 11:49:00,57.7,53.2,29.94,West,269,4.0,11.0,85,0.00,,,0.01,Wunderground v.1.15,2013-04-29 15:49:00,
2013-04-29 11:50:00,57.7,53.2,29.94,NNW,348,3.0,11.0,85,0.00,,,0.01,Wunderground v.1.15,2013-04-29 15:50:00,
2013-04-29 11:51:00,57.8,53.3,29.94,WSW,250,10.0,10.0,85,0.00,,,0.01,Wunderground v.1.15,2013-04-29 15:51:00,
2013-04-29 11:54:00,58.0,53.2,29.94,WSW,258,5.0,10.0,84,0.00,,,0.01,Wunderground v.1.15,2013-04-29 15:54:00,
2013-04-29 11:55:00,58.1,53.3,29.94,WNW,282,6.0,10.0,84,0.00,,,0.01,Wunderground v.1.15,2013-04-29 15:55:00,
2013-04-29 11:56:00,58.2,53.4,29.94,WNW,286,10.0,11.0,84,0.00,,,0.01,Wunderground v.1.15,2013-04-29 15:56:00,
2013-04-29 12:00:00,58.5,53.7,29.94,WNW,302,6.0,7.0,84,0.00,,,0.01,Wunderground v.1.15,2013-04-29 16:00:00,
2013-04-29 12:01:00,58.6,53.8,29.94,West,262,5.0,9.0,84,0.00,,,0.01,Wunderground v.1.15,2013-04-29 16:01:00,
2013-04-29 12:02:00,58.6,53.8,29.94,West,261,7.0,9.0,84,0.00,,,0.01,Wunderground v.1.15,2013-04-29 16:02:00,
2013-04-29 12:05:00,58.9,53.4,29.94,West,277,5.0,11.0,82,0.00,,,0.01,Wunderground v.1.15,2013-04-29 16:05:00,
2013-04-29 12:06:00,58.9,53.4,29.94,WNW,290,6.0,11.0,82,0.00,,,0.01,Wunderground v.1.15,2013-04-29 16:06:00,
2013-04-29 12:07:00,58.9,53.4,29.94,WSW,257,5.0,11.0,82,0.00,,,0.01,Wunderground v.1.15,2013-04-29 16:07:00,
2013-04-29 12:08:00,59.0,53.5,29.94,WSW,257,5.0,11.0,82,0.00,,,0.01,Wunderground v.1.15,2013-04-29 16:08:00,
2013-04-29 12:11:00,59.0,53.8,29.94,WSW,240,4.0,9.0,83,0.00,,,0.01,Wunderground v.1.15,2013-04-29 16:11:00,
2013-04-29 12:12:00,59.0,53.5,29.94,WSW,238,2.0,9.0,82,0.00,,,0.01,Wunderground v.1.15,2013-04-29 16:12:00,
2013-04-29 12:13:00,59.0,53.5,29.94,SW,227,2.0,9.0,82,0.00,,,0.01,Wunderground v.1.15,2013-04-29 16:13:00,
2013-04-29 12:16:00,59.4,53.9,29.94,WSW,251,5.0,9.0,82,0.00,,,0.01,Wunderground v.1.15,2013-04-29 16:16:00,
2013-04-29 12:17:00,59.5,54.0,29.94,West,277,4.0,9.0,82,0.00,,,0.01,Wunderground v.1.15,2013-04-29 16:17:00,
2013-04-29 12:18:00,59.5,54.0,29.94,West,261,5.0,9.0,82,0.00,,,0.01,Wunderground v.1.15,2013-04-29 16:18:00,
2013-04-29 12:21:00,59.8,54.0,29.94,West,267,10.0,10.0,81,0.00,,,0.01,Wunderground v.1.15,2013-04-29 16:21:00,
2013-04-29 12:22:00,59.9,53.7,29.94,West,273,4.0,10.0,80,0.00,,,0.01,Wunderground v.1.15,2013-04-29 16:22:00,
2013-04-29 12:23:00,59.9,53.7,29.94,West,263,4.0,10.0,80,0.00,,,0.01,Wunderground v.1.15,2013-04-29 16:23:00,
2013-04-29 12:27:00,60.3,54.1,29.94,WSW,244,4.0,10.0,80,0.00,,,0.01,Wunderground v.1.15,2013-04-29 16:27:00,
2013-04-29 12:28:00,60.4,54.2,29.94,WNW,284,1.0,10.0,80,0.00,,,0.01,Wunderground v.1.15,2013-04-29 16:28:00,
2013-04-29 12:29:00,60.4,54.2,29.94,WNW,288,7.0,10.0,80,0.00,,,0.01,Wunderground v.1.15,2013-04-29 16:29:00,
2013-04-29 12:32:00,60.6,53.7,29.94,NW,308,3.0,6.0,78,0.00,,,0.01,Wunderground v.1.15,2013-04-29 16:32:00,
2013-04-29 12:33:00,60.8,53.9,29.94,WSW,256,6.0,10.0,78,0.00,,,0.01,Wunderground v.1.15,2013-04-29 16:33:00,
2013-04-29 12:34:00,60.8,53.9,29.94,SSW,207,4.0,10.0,78,0.00,,,0.01,Wunderground v.1.15,2013-04-29 16:34:00,
2013-04-29 12:37:00,61.1,54.2,29.93,West,276,2.0,10.0,78,0.00,,,0.01,Wunderground v.1.15,2013-04-29 16:37:00,
2013-04-29 12:38:00,61.2,54.3,29.93,WSW,253,3.0,10.0,78,0.00,,,0.01,Wunderground v.1.15,2013-04-29 16:38:00,
2013-04-29 12:39:00,61.4,54.1,29.93,West,272,1.0,10.0,77,0.00,,,0.01,Wunderground v.1.15,2013-04-29 16:39:00,
2013-04-29 12:40:00,61.4,54.1,29.93,West,272,6.0,6.0,77,0.00,,,0.01,Wunderground v.1.15,2013-04-29 16:40:00,
2013-04-29 12:42:00,61.7,54.1,29.93,North,349,0.0,6.0,76,0.00,,,0.01,Wunderground v.1.15,2013-04-29 16:42:00,
2013-04-29 12:43:00,61.8,54.2,29.93,North,349,1.0,6.0,76,0.00,,,0.01,Wunderground v.1.15,2013-04-29 16:43:00,
2013-04-29 12:44:00,61.9,54.2,29.93,North,349,3.0,6.0,76,0.00,,,0.01,Wunderground v.1.15,2013-04-29 16:44:00,
2013-04-29 12:45:00,62.0,54.3,29.93,NNW,340,1.0,6.0,76,0.00,,,0.01,Wunderground v.1.15,2013-04-29 16:45:00,
2013-04-29 12:47:00,62.2,54.2,29.93,NW,326,2.0,6.0,75,0.00,,,0.01,Wunderground v.1.15,2013-04-29 16:47:00,
2013-04-29 12:48:00,62.2,54.2,29.93,NW,326,0.0,6.0,75,0.00,,,0.01,Wunderground v.1.15,2013-04-29 16:48:00,
2013-04-29 12:49:00,62.3,54.3,29.93,NW,326,1.0,6.0,75,0.00,,,0.01,Wunderground v.1.15,2013-04-29 16:49:00,
2013-04-29 12:50:00,62.3,54.3,29.93,NW,325,0.0,3.0,75,0.00,,,0.01,Wunderground v.1.15,2013-04-29 16:50:00,
2013-04-29 12:53:00,62.6,54.6,29.93,NNW,327,1.0,3.0,75,0.00,,,0.01,Wunderground v.1.15,2013-04-29 16:53:00,
2013-04-29 12:55:00,62.8,54.8,29.93,NNW,328,3.0,3.0,75,0.00,,,0.01,Wunderground v.1.15,2013-04-29 16:55:00,
2013-04-29 12:56:00,62.8,54.4,29.93,NNW,328,1.0,3.0,74,0.00,,,0.01,Wunderground v.1.15,2013-04-29 16:56:00,
2013-04-29 12:58:00,62.9,54.5,29.93,NW,326,4.0,4.0,74,0.00,,,0.01,Wunderground v.1.15,2013-04-29 16:58:00,
2013-04-29 13:00:00,62.9,54.9,29.93,WSW,257,0.0,2.0,75,0.00,,,0.01,Wunderground v.1.15,2013-04-29 17:00:00,
2013-04-29 13:01:00,63.0,54.9,29.93,West,262,1.0,3.0,75,0.00,,,0.01,Wunderground v.1.15,2013-04-29 17:01:00,
2013-04-29 13:02:00,63.0,54.6,29.93,West,279,2.0,4.0,74,0.00,,,0.01,Wunderground v.1.15,2013-04-29 17:02:00,
2013-04-29 13:03:00,63.0,53.8,29.93,WNW,294,2.0,4.0,72,0.00,,,0.01,Wunderground v.1.15,2013-04-29 17:03:00,
2013-04-29 13:05:00,63.1,54.3,29.93,WNW,294,2.0,4.0,73,0.00,,,0.01,Wunderground v.1.15,2013-04-29 17:05:00,
2013-04-29 13:06:00,63.1,54.3,29.93,WNW,303,1.0,4.0,73,0.00,,,0.01,Wunderground v.1.15,2013-04-29 17:06:00,
2013-04-29 13:07:00,63.1,53.9,29.93,WNW,303,1.0,4.0,72,0.00,,,0.01,Wunderground v.1.15,2013-04-29 17:07:00,
2013-04-29 13:08:00,63.1,54.3,29.92,NW,308,3.0,4.0,73,0.00,,,0.01,Wunderground v.1.15,2013-04-29 17:08:00,
2013-04-29 13:10:00,63.1,54.3,29.92,NW,317,1.0,4.0,73,0.00,,,0.01,Wunderground v.1.15,2013-04-29 17:10:00,
2013-04-29 13:12:00,63.1,53.9,29.92,NW,317,3.0,4.0,72,0.00,,,0.01,Wunderground v.1.15,2013-04-29 17:12:00,
2013-04-29 13:14:00,62.9,53.4,29.93,NNW,328,2.0,4.0,71,0.00,,,0.01,Wunderground v.1.15,2013-04-29 17:14:00,
2013-04-29 13:16:00,62.7,53.5,29.92,NNW,328,2.0,4.0,72,0.00,,,0.01,Wunderground v.1.15,2013-04-29 17:16:00,
2013-04-29 13:17:00,62.7,53.9,29.92,NNW,328,0.0,4.0,73,0.00,,,0.01,Wunderground v.1.15,2013-04-29 17:17:00,
2013-04-29 13:19:00,62.7,53.9,29.92,NNW,328,3.0,4.0,73,0.00,,,0.01,Wunderground v.1.15,2013-04-29 17:19:00,
2013-04-29 13:21:00,62.5,53.3,29.92,NNW,327,3.0,4.0,72,0.00,,,0.01,Wunderground v.1.15,2013-04-29 17:21:00,
2013-04-29 13:22:00,62.4,53.3,29.92,NNW,327,3.0,4.0,72,0.00,,,0.01,Wunderground v.1.15,2013-04-29 17:22:00,
2013-04-29 13:23:00,62.4,53.3,29.92,NNW,327,4.0,4.0,72,0.00,,,0.01,Wunderground v.1.15,2013-04-29 17:23:00,
2013-04-29 13:24:00,62.2,53.1,29.92,NNW,328,2.0,4.0,72,0.00,,,0.01,Wunderground v.1.15,2013-04-29 17:24:00,
2013-04-29 13:26:00,61.9,53.1,29.92,NNW,328,2.0,4.0,73,0.00,,,0.01,Wunderground v.1.15,2013-04-29 17:26:00,
2013-04-29 13:27:00,61.8,53.1,29.92,NNW,327,1.0,4.0,73,0.00,,,0.01,Wunderground v.1.15,2013-04-29 17:27:00,
2013-04-29 13:29:00,61.8,53.1,29.92,NNW,328,1.0,4.0,73,0.00,,,0.01,Wunderground v.1.15,2013-04-29 17:29:00,
2013-04-29 13:31:00,61.6,52.9,29.92,NNW,328,2.0,3.0,73,0.00,,,0.01,Wunderground v.1.15,2013-04-29 17:31:00,
2013-04-29 13:32:00,61.6,53.2,29.92,NNW,328,2.0,3.0,74,0.00,,,0.01,Wunderground v.1.15,2013-04-29 17:32:00,
2013-04-29 13:34:00,61.4,53.0,29.92,NNW,327,1.0,4.0,74,0.00,,,0.01,Wunderground v.1.15,2013-04-29 17:34:00,
2013-04-29 13:35:00,61.5,53.5,29.92,NNW,327,2.0,4.0,75,0.00,,,0.01,Wunderground v.1.15,2013-04-29 17:35:00,
2013-04-29 13:36:00,61.4,53.0,29.92,NNW,328,1.0,4.0,74,0.00,,,0.01,Wunderground v.1.15,2013-04-29 17:36:00,
2013-04-29 13:38:00,61.3,53.3,29.92,NNW,328,2.0,4.0,75,0.00,,,0.01,Wunderground v.1.15,2013-04-29 17:38:00,
2013-04-29 13:39:00,61.4,53.4,29.92,NNW,328,2.0,4.0,75,0.00,,,0.01,Wunderground v.1.15,2013-04-29 17:39:00,
2013-04-29 13:40:00,61.4,53.4,29.92,NNW,327,2.0,4.0,75,0.00,,,0.01,Wunderground v.1.15,2013-04-29 17:40:00,
2013-04-29 13:41:00,61.3,52.9,29.92,NNW,327,3.0,3.0,74,0.00,,,0.01,Wunderground v.1.15,2013-04-29 17:41:00,
2013-04-29 13:42:00,61.3,52.9,29.92,NNW,327,2.0,3.0,74,0.00,,,0.01,Wunderground v.1.15,2013-04-29 17:42:00,
2013-04-29 13:43:00,61.3,53.3,29.92,NNW,328,2.0,4.0,75,0.00,,,0.01,Wunderground v.1.15,2013-04-29 17:43:00,
2013-04-29 13:44:00,61.3,53.3,29.92,NNW,328,2.0,4.0,75,0.00,,,0.01,Wunderground v.1.15,2013-04-29 17:44:00,
2013-04-29 13:45:00,61.2,53.2,29.92,NNW,328,2.0,4.0,75,0.00,,,0.01,Wunderground v.1.15,2013-04-29 17:45:00,
2013-04-29 13:46:00,61.3,54.0,29.92,NNW,328,1.0,4.0,77,0.00,,,0.01,Wunderground v.1.15,2013-04-29 17:46:00,
2013-04-29 13:47:00,61.4,54.1,29.92,NNW,327,2.0,4.0,77,0.00,,,0.01,Wunderground v.1.15,2013-04-29 17:47:00,
2013-04-29 13:49:00,61.4,53.8,29.92,NNW,328,1.0,4.0,76,0.00,,,0.01,Wunderground v.1.15,2013-04-29 17:49:00,
2013-04-29 13:50:00,61.4,53.8,29.92,NNW,328,2.0,2.0,76,0.00,,,0.01,Wunderground v.1.15,2013-04-29 17:50:00,
2013-04-29 13:51:00,61.4,53.8,29.92,NNW,327,2.0,3.0,76,0.00,,,0.01,Wunderground v.1.15,2013-04-29 17:51:00,
2013-04-29 13:53:00,61.3,53.3,29.92,NNW,328,2.0,3.0,75,0.00,,,0.01,Wunderground v.1.15,2013-04-29 17:53:00,
2013-04-29 13:54:00,61.2,53.2,29.91,NNW,328,1.0,3.0,75,0.00,,,0.01,Wunderground v.1.15,2013-04-29 17:54:00,
2013-04-29 13:55:00,61.1,53.1,29.92,NNW,328,3.0,3.0,75,0.00,,,0.01,Wunderground v.1.15,2013-04-29 17:55:00,
2013-04-29 13:57:00,60.9,52.9,29.92,NNW,328,3.0,4.0,75,0.00,,,0.01,Wunderground v.1.15,2013-04-29 17:57:00,
2013-04-29 13:58:00,60.8,53.2,29.92,NNW,328,3.0,4.0,76,0.00,,,0.01,Wunderground v.1.15,2013-04-29 17:58:00,
2013-04-29 13:59:00,60.7,53.1,29.92,NNW,327,3.0,4.0,76,0.00,,,0.01,Wunderground v.1.15,2013-04-29 17:59:00,
2013-04-29 14:00:00,60.5,53.3,29.92,NNW,327,4.0,4.0,77,0.00,,,0.01,Wunderground v.1.15,2013-04-29 18:00:00,
2013-04-29 14:02:00,60.3,53.4,29.92,NNW,327,3.0,4.0,78,0.00,,,0.01,Wunderground v.1.15,2013-04-29 18:02:00,
2013-04-29 14:03:00,60.3,53.8,29.92,NNW,328,2.0,4.0,79,0.00,,,0.01,Wunderground v.1.15,2013-04-29 18:03:00,
2013-04-29 14:04:00,60.4,54.2,29.92,NNW,328,2.0,4.0,80,0.00,,,0.01,Wunderground v.1.15,2013-04-29 18:04:00,
2013-04-29 14:05:00,60.6,54.4,29.92,NNW,328,2.0,4.0,80,0.00,,,0.01,Wunderground v.1.15,2013-04-29 18:05:00,
2013-04-29 14:07:00,60.8,54.6,29.92,NNW,328,3.0,4.0,80,0.00,,,0.01,Wunderground v.1.15,2013-04-29 18:07:00,
2013-04-29 14:09:00,60.8,54.6,29.92,NNW,327,2.0,4.0,80,0.00,,,0.01,Wunderground v.1.15,2013-04-29 18:09:00,
2013-04-29 14:10:00,60.9,54.7,29.92,NNW,327,2.0,3.0,80,0.00,,,0.01,Wunderground v.1.15,2013-04-29 18:10:00,
2013-04-29 14:12:00,60.9,54.7,29.92,NNW,327,2.0,3.0,80,0.00,,,0.01,Wunderground v.1.15,2013-04-29 18:12:00,
2013-04-29 14:14:00,60.9,54.3,29.92,NNW,328,1.0,3.0,79,0.00,,,0.01,Wunderground v.1.15,2013-04-29 18:14:00,
2013-04-29 14:16:00,60.9,54.3,29.92,NNW,328,2.0,3.0,79,0.00,,,0.01,Wunderground v.1.15,2013-04-29 18:16:00,
2013-04-29 14:17:00,61.0,54.8,29.92,NNW,328,2.0,3.0,80,0.00,,,0.01,Wunderground v.1.15,2013-04-29 18:17:00,
2013-04-29 14:19:00,60.9,54.7,29.92,NNW,328,1.0,3.0,80,0.00,,,0.01,Wunderground v.1.15,2013-04-29 18:19:00,
2013-04-29 14:20:00,60.9,54.7,29.92,NNW,328,2.0,2.0,80,0.00,,,0.01,Wunderground v.1.15,2013-04-29 18:20:00,
2013-04-29 14:21:00,60.9,54.7,29.92,NNW,328,1.0,3.0,80,0.00,,,0.01,Wunderground v.1.15,2013-04-29 18:21:00,
2013-04-29 14:22:00,60.9,54.7,29.91,NNW,327,2.0,3.0,80,0.00,,,0.01,Wunderground v.1.15,2013-04-29 18:22:00,
2013-04-29 14:23:00,61.0,54.8,29.91,NNW,328,2.0,3.0,80,0.00,,,0.01,Wunderground v.1.15,2013-04-29 18:23:00,
2013-04-29 14:24:00,61.1,54.9,29.91,NNW,328,2.0,3.0,80,0.00,,,0.01,Wunderground v.1.15,2013-04-29 18:24:00,
2013-04-29 14:25:00,61.1,54.5,29.91,NNW,327,2.0,3.0,79,0.00,,,0.01,Wunderground v.1.15,2013-04-29 18:25:00,
2013-04-29 14:26:00,61.2,54.6,29.91,NNW,327,2.0,3.0,79,0.00,,,0.01,Wunderground v.1.15,2013-04-29 18:26:00,
2013-04-29 14:27:00,61.3,55.1,29.91,NNW,328,2.0,3.0,80,0.00,,,0.01,Wunderground v.1.15,2013-04-29 18:27:00,
2013-04-29 14:28:00,61.5,55.3,29.91,NNW,328,1.0,3.0,80,0.00,,,0.01,Wunderground v.1.15,2013-04-29 18:28:00,
2013-04-29 14:30:00,61.5,54.9,29.91,NNW,328,1.0,1.0,79,0.00,,,0.01,Wunderground v.1.15,2013-04-29 18:30:00,
2013-04-29 14:31:00,61.7,55.5,29.91,NNW,328,1.0,2.0,80,0.00,,,0.01,Wunderground v.1.15,2013-04-29 18:31:00,
2013-04-29 14:33:00,61.7,54.8,29.91,NNW,328,1.0,2.0,78,0.00,,,0.01,Wunderground v.1.15,2013-04-29 18:33:00,
2013-04-29 14:35:00,61.8,54.9,29.91,NNW,328,0.0,2.0,78,0.00,,,0.01,Wunderground v.1.15,2013-04-29 18:35:00,
2013-04-29 14:36:00,61.8,54.5,29.91,NNW,328,1.0,2.0,77,0.00,,,0.01,Wunderground v.1.15,2013-04-29 18:36:00,
2013-04-29 14:38:00,61.9,54.6,29.91,NNW,328,1.0,2.0,77,0.00,,,0.01,Wunderground v.1.15,2013-04-29 18:38:00,
2013-04-29 14:39:00,61.9,54.6,29.91,NNW,328,0.0,2.0,77,0.00,,,0.01,Wunderground v.1.15,2013-04-29 18:39:00,
2013-04-29 14:40:00,62.0,54.7,29.91,NNW,327,3.0,3.0,77,0.00,,,0.01,Wunderground v.1.15,2013-04-29 18:40:00,
2013-04-29 14:41:00,62.0,54.3,29.90,NNW,328,1.0,3.0,76,0.00,,,0.01,Wunderground v.1.15,2013-04-29 18:41:00,
2013-04-29 14:44:00,62.3,55.0,29.90,NNW,328,1.0,3.0,77,0.00,,,0.01,Wunderground v.1.15,2013-04-29 18:44:00,
2013-04-29 14:45:00,62.4,55.1,29.90,NNW,328,1.0,3.0,77,0.00,,,0.01,Wunderground v.1.15,2013-04-29 18:45:00,
2013-04-29 14:46:00,62.4,54.7,29.90,NNW,328,2.0,3.0,76,0.00,,,0.01,Wunderground v.1.15,2013-04-29 18:46:00,
2013-04-29 14:47:00,62.4,54.7,29.90,NNW,327,1.0,3.0,76,0.00,,,0.01,Wunderground v.1.15,2013-04-29 18:47:00,
2013-04-29 14:49:00,62.3,55.0,29.91,NNW,327,2.0,3.0,77,0.00,,,0.01,Wunderground v.1.15,2013-04-29 18:49:00,
2013-04-29 14:50:00,62.3,55.4,29.91,NNW,328,1.0,2.0,78,0.00,,,0.01,Wunderground v.1.15,2013-04-29 18:50:00,
2013-04-29 14:51:00,62.3,55.4,29.91,NNW,327,1.0,2.0,78,0.00,,,0.01,Wunderground v.1.15,2013-04-29 18:51:00,
2013-04-29 14:52:00,62.2,54.9,29.91,NNW,328,1.0,2.0,77,0.00,,,0.01,Wunderground v.1.15,2013-04-29 18:52:00,
2013-04-29 14:54:00,62.3,55.4,29.91,NNW,327,1.0,2.0,78,0.00,,,0.01,Wunderground v.1.15,2013-04-29 18:54:00,
2013-04-29 14:56:00,62.3,55.0,29.91,NNW,327,2.0,3.0,77,0.00,,,0.01,Wunderground v.1.15,2013-04-29 18:56:00,
2013-04-29 14:57:00,62.4,55.4,29.91,NNW,328,2.0,3.0,78,0.00,,,0.01,Wunderground v.1.15,2013-04-29 18:57:00,
2013-04-29 14:59:00,62.5,55.9,29.91,NNW,328,2.0,3.0,79,0.00,,,0.01,Wunderground v.1.15,2013-04-29 18:59:00,
2013-04-29 15:01:00,62.7,56.1,29.90,NNW,328,2.0,3.0,79,0.00,,,0.01,Wunderground v.1.15,2013-04-29 19:01:00,
2013-04-29 15:02:00,62.7,55.4,29.90,NNW,328,3.0,3.0,77,0.00,,,0.01,Wunderground v.1.15,2013-04-29 19:02:00,
2013-04-29 15:04:00,62.7,55.0,29.90,NNW,328,2.0,4.0,76,0.00,,,0.01,Wunderground v.1.15,2013-04-29 19:04:00,
2013-04-29 15:06:00,62.8,55.5,29.90,NNW,327,3.0,4.0,77,0.00,,,0.01,Wunderground v.1.15,2013-04-29 19:06:00,
2013-04-29 15:07:00,63.0,55.7,29.90,NNW,327,2.0,4.0,77,0.00,,,0.01,Wunderground v.1.15,2013-04-29 19:07:00,
2013-04-29 15:09:00,63.1,56.1,29.90,NNW,328,2.0,4.0,78,0.00,,,0.01,Wunderground v.1.15,2013-04-29 19:09:00,
2013-04-29 15:11:00,63.2,55.9,29.90,NNW,327,3.0,3.0,77,0.00,,,0.01,Wunderground v.1.15,2013-04-29 19:11:00,
2013-04-29 15:12:00,63.1,55.0,29.90,NNW,327,3.0,4.0,75,0.00,,,0.01,Wunderground v.1.15,2013-04-29 19:12:00,
2013-04-29 15:13:00,63.1,54.7,29.90,NNW,328,3.0,4.0,74,0.00,,,0.01,Wunderground v.1.15,2013-04-29 19:13:00,
2013-04-29 15:14:00,63.2,54.8,29.90,NNW,327,4.0,4.0,74,0.00,,,0.01,Wunderground v.1.15,2013-04-29 19:14:00,
2013-04-29 15:16:00,63.2,54.8,29.90,NNW,327,4.0,4.0,74,0.00,,,0.01,Wunderground v.1.15,2013-04-29 19:16:00,
2013-04-29 15:17:00,63.3,54.9,29.90,NNW,328,4.0,5.0,74,0.00,,,0.01,Wunderground v.1.15,2013-04-29 19:17:00,
2013-04-29 15:19:00,63.2,54.4,29.90,NNW,328,3.0,5.0,73,0.00,,,0.01,Wunderground v.1.15,2013-04-29 19:19:00,
2013-04-29 15:21:00,63.1,54.7,29.90,NNW,328,4.0,5.0,74,0.00,,,0.01,Wunderground v.1.15,2013-04-29 19:21:00,
2013-04-29 15:22:00,63.1,54.3,29.90,NNW,328,3.0,5.0,73,0.00,,,0.01,Wunderground v.1.15,2013-04-29 19:22:00,
2013-04-29 15:23:00,63.1,54.7,29.90,NNW,327,3.0,5.0,74,0.00,,,0.01,Wunderground v.1.15,2013-04-29 19:23:00,
2013-04-29 15:24:00,63.1,55.0,29.90,NNW,327,3.0,5.0,75,0.00,,,0.01,Wunderground v.1.15,2013-04-29 19:24:00,
2013-04-29 15:25:00,63.0,54.9,29.90,NNW,327,4.0,5.0,75,0.00,,,0.01,Wunderground v.1.15,2013-04-29 19:25:00,
2013-04-29 15:26:00,62.9,54.5,29.90,NNW,328,3.0,5.0,74,0.00,,,0.01,Wunderground v.1.15,2013-04-29 19:26:00,
2013-04-29 15:27:00,62.9,54.5,29.90,NNW,328,3.0,5.0,74,0.00,,,0.01,Wunderground v.1.15,2013-04-29 19:27:00,
2013-04-29 15:28:00,62.9,54.5,29.90,NNW,328,4.0,5.0,74,0.00,,,0.01,Wunderground v.1.15,2013-04-29 19:28:00,
2013-04-29 15:30:00,62.8,54.4,29.90,NNW,328,4.0,5.0,74,0.00,,,0.01,Wunderground v.1.15,2013-04-29 19:30:00,
2013-04-29 15:31:00,62.9,54.9,29.90,NNW,328,3.0,5.0,75,0.00,,,0.01,Wunderground v.1.15,2013-04-29 19:31:00,
2013-04-29 15:33:00,63.1,56.1,29.90,NNW,327,2.0,5.0,78,0.00,,,0.01,Wunderground v.1.15,2013-04-29 19:33:00,
2013-04-29 15:35:00,63.6,57.0,29.90,NNW,328,2.0,5.0,79,0.00,,,0.01,Wunderground v.1.15,2013-04-29 19:35:00,
2013-04-29 15:37:00,64.0,57.4,29.90,NNW,327,3.0,5.0,79,0.00,,,0.01,Wunderground v.1.15,2013-04-29 19:37:00,
2013-04-29 15:38:00,64.1,56.4,29.90,NNW,328,2.0,5.0,76,0.00,,,0.01,Wunderground v.1.15,2013-04-29 19:38:00,
2013-04-29 15:40:00,64.1,56.0,29.90,NNW,328,3.0,4.0,75,0.00,,,0.01,Wunderground v.1.15,2013-04-29 19:40:00,
2013-04-29 15:42:00,63.9,55.1,29.90,NNW,328,3.0,4.0,73,0.00,,,0.01,Wunderground v.1.15,2013-04-29 19:42:00,
2013-04-29 15:43:00,63.9,55.4,29.90,NNW,328,2.0,4.0,74,0.00,,,0.01,Wunderground v.1.15,2013-04-29 19:43:00,
2013-04-29 15:44:00,63.9,55.4,29.90,NNW,327,2.0,4.0,74,0.00,,,0.01,Wunderground v.1.15,2013-04-29 19:44:00,
2013-04-29 15:45:00,63.9,55.4,29.90,NNW,328,3.0,5.0,74,0.00,,,0.01,Wunderground v.1.15,2013-04-29 19:45:00,
2013-04-29 15:47:00,64.0,55.5,29.90,NNW,327,4.0,5.0,74,0.00,,,0.01,Wunderground v.1.15,2013-04-29 19:47:00,
2013-04-29 15:49:00,64.0,56.3,29.90,NNW,328,3.0,5.0,76,0.00,,,0.01,Wunderground v.1.15,2013-04-29 19:49:00,
2013-04-29 15:50:00,64.2,55.7,29.90,NNW,327,3.0,4.0,74,0.00,,,0.01,Wunderground v.1.15,2013-04-29 19:50:00,
2013-04-29 15:52:00,64.3,55.5,29.89,NNW,327,3.0,4.0,73,0.00,,,0.01,Wunderground v.1.15,2013-04-29 19:52:00,
2013-04-29 15:53:00,64.3,55.5,29.89,NNW,328,2.0,4.0,73,0.00,,,0.01,Wunderground v.1.15,2013-04-29 19:53:00,
2013-04-29 15:54:00,64.4,55.6,29.89,NNW,327,3.0,4.0,73,0.00,,,0.01,Wunderground v.1.15,2013-04-29 19:54:00,
2013-04-29 15:55:00,64.5,55.7,29.89,NNW,328,3.0,4.0,73,0.00,,,0.01,Wunderground v.1.15,2013-04-29 19:55:00,
2013-04-29 15:58:00,64.5,55.3,29.89,NNW,328,2.0,4.0,72,0.00,,,0.01,Wunderground v.1.15,2013-04-29 19:58:00,
2013-04-29 15:59:00,64.5,55.7,29.89,NNW,327,3.0,4.0,73,0.00,,,0.01,Wunderground v.1.15,2013-04-29 19:59:00,
2013-04-29 16:00:00,64.6,56.1,29.89,NNW,328,3.0,4.0,74,0.00,,,0.01,Wunderground v.1.15,2013-04-29 20:00:00,
2013-04-29 16:01:00,64.8,55.9,29.89,NNW,327,4.0,4.0,73,0.00,,,0.01,Wunderground v.1.15,2013-04-29 20:01:00,
2013-04-29 16:03:00,65.0,56.1,29.88,NNW,328,3.0,4.0,73,0.00,,,0.01,Wunderground v.1.15,2013-04-29 20:03:00,
2013-04-29 16:04:00,65.3,56.4,29.88,NNW,328,1.0,4.0,73,0.00,,,0.01,Wunderground v.1.15,2013-04-29 20:04:00,
2013-04-29 16:05:00,65.7,57.6,29.88,NNW,327,2.0,4.0,75,0.00,,,0.01,Wunderground v.1.15,2013-04-29 20:05:00,
2013-04-29 16:07:00,66.2,57.3,29.88,NNW,328,3.0,4.0,73,0.00,,,0.01,Wunderground v.1.15,2013-04-29 20:07:00,
2013-04-29 16:08:00,66.4,56.7,29.88,NNW,328,4.0,5.0,71,0.00,,,0.01,Wunderground v.1.15,2013-04-29 20:08:00,
2013-04-29 16:10:00,66.7,56.2,29.88,NNW,327,3.0,3.0,69,0.00,,,0.01,Wunderground v.1.15,2013-04-29 20:10:00,
2013-04-29 16:11:00,66.7,55.4,29.88,NNW,328,4.0,4.0,67,0.00,,,0.01,Wunderground v.1.15,2013-04-29 20:11:00,
2013-04-29 16:12:00,66.6,55.3,29.88,NNW,328,2.0,4.0,67,0.00,,,0.01,Wunderground v.1.15,2013-04-29 20:12:00,
2013-04-29 16:13:00,66.6,56.1,29.88,NNW,328,4.0,4.0,69,0.00,,,0.01,Wunderground v.1.15,2013-04-29 20:13:00,
2013-04-29 16:14:00,66.6,56.1,29.88,NNW,328,4.0,4.0,69,0.00,,,0.01,Wunderground v.1.15,2013-04-29 20:14:00,
2013-04-29 16:15:00,66.7,55.8,29.88,NNW,328,4.0,4.0,68,0.00,,,0.01,Wunderground v.1.15,2013-04-29 20:15:00,
2013-04-29 16:16:00,66.5,55.2,29.88,NNW,327,3.0,4.0,67,0.00,,,0.01,Wunderground v.1.15,2013-04-29 20:16:00,
2013-04-29 16:17:00,66.3,55.4,29.88,NNW,328,3.0,4.0,68,0.00,,,0.01,Wunderground v.1.15,2013-04-29 20:17:00,
2013-04-29 16:18:00,66.3,57.0,29.88,NNW,328,4.0,4.0,72,0.00,,,0.01,Wunderground v.1.15,2013-04-29 20:18:00,
2013-04-29 16:19:00,66.3,57.0,29.88,NNW,328,3.0,4.0,72,0.00,,,0.01,Wunderground v.1.15,2013-04-29 20:19:00,
2013-04-29 16:20:00,66.2,56.5,29.88,NNW,327,2.0,4.0,71,0.00,,,0.01,Wunderground v.1.15,2013-04-29 20:20:00,
2013-04-29 16:22:00,66.3,58.1,29.88,NNW,328,2.0,4.0,75,0.00,,,0.01,Wunderground v.1.15,2013-04-29 20:22:00,
2013-04-29 16:23:00,66.5,58.3,29.88,NNW,328,2.0,4.0,75,0.00,,,0.01,Wunderground v.1.15,2013-04-29 20:23:00,
2013-04-29 16:24:00,66.6,58.4,29.88,NNW,327,3.0,4.0,75,0.00,,,0.01,Wunderground v.1.15,2013-04-29 20:24:00,
2013-04-29 16:25:00,66.5,58.3,29.88,NNW,328,3.0,4.0,75,0.00,,,0.01,Wunderground v.1.15,2013-04-29 20:25:00,
2013-04-29 16:28:00,65.9,57.0,29.88,NNW,327,1.0,4.0,73,0.00,,,0.01,Wunderground v.1.15,2013-04-29 20:28:00,
2013-04-29 16:29:00,65.7,56.8,29.88,NNW,327,0.0,4.0,73,0.00,,,0.01,Wunderground v.1.15,2013-04-29 20:29:00,
2013-04-29 16:30:00,65.7,56.4,29.88,NNW,328,1.0,2.0,72,0.00,,,0.01,Wunderground v.1.15,2013-04-29 20:30:00,
2013-04-29 16:33:00,65.6,56.3,29.88,NNW,327,0.0,2.0,72,0.00,,,0.01,Wunderground v.1.15,2013-04-29 20:33:00,
2013-04-29 16:34:00,65.6,56.3,29.88,NNW,328,0.0,2.0,72,0.00,,,0.01,Wunderground v.1.15,2013-04-29 20:34:00,
2013-04-29 16:35:00,65.6,56.3,29.88,NNW,327,1.0,2.0,72,0.00,,,0.01,Wunderground v.1.15,2013-04-29 20:35:00,
2013-04-29 16:38:00,65.5,56.2,29.88,NNW,328,1.0,2.0,72,0.00,,,0.01,Wunderground v.1.15,2013-04-29 20:38:00,
2013-04-29 16:39:00,65.4,56.1,29.88,NNW,328,2.0,2.0,72,0.00,,,0.01,Wunderground v.1.15,2013-04-29 20:39:00,
2013-04-29 16:40:00,65.4,56.9,29.88,NNW,328,0.0,2.0,74,0.00,,,0.01,Wunderground v.1.15,2013-04-29 20:40:00,
2013-04-29 16:43:00,65.3,56.4,29.88,NNW,328,0.0,2.0,73,0.00,,,0.01,Wunderground v.1.15,2013-04-29 20:43:00,
2013-04-29 16:44:00,65.3,56.4,29.87,NNW,328,0.0,2.0,73,0.00,,,0.01,Wunderground v.1.15,2013-04-29 20:44:00,
2013-04-29 16:45:00,65.2,56.7,29.87,NNW,328,0.0,2.0,74,0.00,,,0.01,Wunderground v.1.15,2013-04-29 20:45:00,
2013-04-29 16:46:00,65.1,56.2,29.88,NNW,328,0.0,2.0,73,0.00,,,0.01,Wunderground v.1.15,2013-04-29 20:46:00,
2013-04-29 16:48:00,65.0,56.1,29.88,NNW,328,1.0,2.0,73,0.00,,,0.01,Wunderground v.1.15,2013-04-29 20:48:00,
2013-04-29 16:49:00,64.9,56.0,29.88,NNW,328,2.0,2.0,73,0.00,,,0.01,Wunderground v.1.15,2013-04-29 20:49:00,
2013-04-29 16:50:00,64.9,56.0,29.88,NNW,328,0.0,1.0,73,0.00,,,0.01,Wunderground v.1.15,2013-04-29 20:50:00,
2013-04-29 16:52:00,64.9,56.8,29.88,NNW,328,0.0,1.0,75,0.00,,,0.01,Wunderground v.1.15,2013-04-29 20:52:00,
2013-04-29 16:53:00,64.8,56.3,29.88,NNW,327,1.0,1.0,74,0.00,,,0.01,Wunderground v.1.15,2013-04-29 20:53:00,
2013-04-29 16:54:00,64.8,56.3,29.88,NNW,328,2.0,2.0,74,0.00,,,0.01,Wunderground v.1.15,2013-04-29 20:54:00,
2013-04-29 16:55:00,64.7,56.2,29.88,NNW,328,0.0,2.0,74,0.00,,,0.01,Wunderground v.1.15,2013-04-29 20:55:00,
2013-04-29 16:57:00,64.5,55.3,29.87,NNW,327,2.0,2.0,72,0.00,,,0.01,Wunderground v.1.15,2013-04-29 20:57:00,
2013-04-29 16:58:00,64.4,55.2,29.87,NNW,327,0.0,2.0,72,0.00,,,0.01,Wunderground v.1.15,2013-04-29 20:58:00,
2013-04-29 16:59:00,64.3,55.1,29.88,NNW,328,0.0,2.0,72,0.00,,,0.01,Wunderground v.1.15,2013-04-29 20:59:00,
2013-04-29 17:00:00,64.3,55.1,29.88,NNW,327,0.0,1.0,72,0.00,,,0.01,Wunderground v.1.15,2013-04-29 21:00:00,
2013-04-29 17:03:00,64.3,55.8,29.88,NNW,327,0.0,1.0,74,0.00,,,0.01,Wunderground v.1.15,2013-04-29 21:03:00,
2013-04-29 17:05:00,64.2,55.4,29.88,NNW,328,1.0,2.0,73,0.00,,,0.01,Wunderground v.1.15,2013-04-29 21:05:00,
2013-04-29 17:07:00,64.1,54.9,29.88,NNW,328,0.0,2.0,72,0.00,,,0.01,Wunderground v.1.15,2013-04-29 21:07:00,
2013-04-29 17:08:00,64.0,55.2,29.88,NNW,328,0.0,2.0,73,0.00,,,0.01,Wunderground v.1.15,2013-04-29 21:08:00,
2013-04-29 17:10:00,64.0,55.9,29.88,NNW,328,0.0,0.0,75,0.00,,,0.01,Wunderground v.1.15,2013-04-29 21:10:00,
2013-04-29 17:12:00,64.0,55.5,29.88,NNW,328,0.0,0.0,74,0.00,,,0.01,Wunderground v.1.15,2013-04-29 21:12:00,
2013-04-29 17:13:00,64.0,55.5,29.88,NNW,328,0.0,1.0,74,0.00,,,0.01,Wunderground v.1.15,2013-04-29 21:13:00,
2013-04-29 17:14:00,64.0,55.9,29.88,NNW,328,1.0,2.0,75,0.00,,,0.01,Wunderground v.1.15,2013-04-29 21:14:00,
2013-04-29 17:15:00,64.1,55.3,29.88,NNW,328,1.0,3.0,73,0.00,,,0.01,Wunderground v.1.15,2013-04-29 21:15:00,
2013-04-29 17:16:00,64.1,55.3,29.88,NNW,328,2.0,3.0,73,0.00,,,0.01,Wunderground v.1.15,2013-04-29 21:16:00,
2013-04-29 17:17:00,64.1,55.6,29.88,NNW,328,2.0,3.0,74,0.00,,,0.01,Wunderground v.1.15,2013-04-29 21:17:00,
2013-04-29 17:18:00,64.1,56.0,29.88,NNW,328,2.0,3.0,75,0.00,,,0.01,Wunderground v.1.15,2013-04-29 21:18:00,
2013-04-29 17:19:00,64.1,55.6,29.88,NNW,328,2.0,3.0,74,0.00,,,0.01,Wunderground v.1.15,2013-04-29 21:19:00,
2013-04-29 17:21:00,63.9,55.4,29.88,NNW,328,0.0,3.0,74,0.00,,,0.01,Wunderground v.1.15,2013-04-29 21:21:00,
2013-04-29 17:23:00,63.7,55.6,29.88,NNW,328,1.0,3.0,75,0.00,,,0.01,Wunderground v.1.15,2013-04-29 21:23:00,
2013-04-29 17:24:00,63.7,55.3,29.88,NNW,328,0.0,3.0,74,0.00,,,0.01,Wunderground v.1.15,2013-04-29 21:24:00,
2013-04-29 17:26:00,63.6,55.5,29.87,NNW,328,0.0,3.0,75,0.00,,,0.01,Wunderground v.1.15,2013-04-29 21:26:00,
2013-04-29 17:28:00,63.4,55.0,29.87,NNW,328,1.0,3.0,74,0.00,,,0.01,Wunderground v.1.15,2013-04-29 21:28:00,
2013-04-29 17:29:00,63.3,54.9,29.87,NNW,327,0.0,3.0,74,0.00,,,0.01,Wunderground v.1.15,2013-04-29 21:29:00,
2013-04-29 17:31:00,63.2,55.1,29.87,NNW,328,0.0,1.0,75,0.00,,,0.01,Wunderground v.1.15,2013-04-29 21:31:00,
2013-04-29 17:32:00,63.1,55.0,29.87,NNW,327,1.0,2.0,75,0.00,,,0.01,Wunderground v.1.15,2013-04-29 21:32:00,
2013-04-29 17:34:00,63.0,55.7,29.88,NNW,328,0.0,3.0,77,0.00,,,0.01,Wunderground v.1.15,2013-04-29 21:34:00,
2013-04-29 17:36:00,62.9,55.6,29.88,NNW,328,0.0,3.0,77,0.00,,,0.01,Wunderground v.1.15,2013-04-29 21:36:00,
2013-04-29 17:37:00,62.8,55.5,29.88,NNW,328,0.0,3.0,77,0.00,,,0.01,Wunderground v.1.15,2013-04-29 21:37:00,
2013-04-29 17:39:00,62.9,55.6,29.88,NNW,328,0.0,3.0,77,0.00,,,0.01,Wunderground v.1.15,2013-04-29 21:39:00,
2013-04-29 17:40:00,62.9,55.6,29.88,NNW,328,0.0,1.0,77,0.00,,,0.01,Wunderground v.1.15,2013-04-29 21:40:00,
2013-04-29 17:41:00,62.8,55.5,29.88,NNW,328,1.0,1.0,77,0.00,,,0.01,Wunderground v.1.15,2013-04-29 21:41:00,
2013-04-29 17:42:00,62.8,55.8,29.88,NNW,327,0.0,1.0,78,0.00,,,0.01,Wunderground v.1.15,2013-04-29 21:42:00,
2013-04-29 17:44:00,62.8,55.5,29.87,NNW,328,0.0,1.0,77,0.00,,,0.01,Wunderground v.1.15,2013-04-29 21:44:00,
2013-04-29 17:45:00,62.8,55.5,29.87,NNW,328,0.0,1.0,77,0.00,,,0.01,Wunderground v.1.15,2013-04-29 21:45:00,
2013-04-29 17:46:00,62.8,55.5,29.87,NNW,327,0.0,1.0,77,0.00,,,0.01,Wunderground v.1.15,2013-04-29 21:46:00,
2013-04-29 17:47:00,62.9,55.6,29.87,NNW,327,1.0,2.0,77,0.00,,,0.01,Wunderground v.1.15,2013-04-29 21:47:00,
2013-04-29 17:50:00,63.0,56.0,29.86,NNW,327,0.0,0.0,78,0.00,,,0.01,Wunderground v.1.15,2013-04-29 21:50:00,
2013-04-29 17:51:00,63.1,56.1,29.86,NNW,327,0.0,1.0,78,0.00,,,0.01,Wunderground v.1.15,2013-04-29 21:51:00,
2013-04-29 17:52:00,63.2,56.2,29.86,NNW,328,0.0,1.0,78,0.00,,,0.01,Wunderground v.1.15,2013-04-29 21:52:00,
2013-04-29 17:53:00,63.2,56.2,29.87,NNW,328,0.0,1.0,78,0.00,,,0.01,Wunderground v.1.15,2013-04-29 21:53:00,
2013-04-29 17:55:00,63.5,56.2,29.87,NNW,327,2.0,3.0,77,0.00,,,0.01,Wunderground v.1.15,2013-04-29 21:55:00,
2013-04-29 17:57:00,63.8,55.7,29.88,SW,225,1.0,7.0,75,0.00,,,0.01,Wunderground v.1.15,2013-04-29 21:57:00,
2013-04-29 17:58:00,63.9,55.4,29.88,SSW,195,2.0,7.0,74,0.00,,,0.01,Wunderground v.1.15,2013-04-29 21:58:00,
2013-04-29 18:00:00,64.3,55.8,29.88,SSW,202,4.0,4.0,74,0.00,,,0.01,Wunderground v.1.15,2013-04-29 22:00:00,
2013-04-29 18:02:00,64.7,55.8,29.88,SW,217,2.0,6.0,73,0.00,,,0.01,Wunderground v.1.15,2013-04-29 22:02:00,
2013-04-29 18:03:00,65.1,56.6,29.88,South,180,0.0,6.0,74,0.00,,,0.01,Wunderground v.1.15,2013-04-29 22:03:00,
2013-04-29 18:05:00,65.5,57.0,29.88,SW,223,4.0,6.0,74,0.00,,,0.01,Wunderground v.1.15,2013-04-29 22:05:00,
2013-04-29 18:06:00,65.7,56.8,29.88,SW,223,2.0,6.0,73,0.00,,,0.01,Wunderground v.1.15,2013-04-29 22:06:00,
2013-04-29 18:07:00,66.2,58.0,29.88,SSW,199,1.0,6.0,75,0.00,,,0.01,Wunderground v.1.15,2013-04-29 22:07:00,
2013-04-29 18:09:00,66.8,58.2,29.88,SSE,161,1.0,6.0,74,0.00,,,0.01,Wunderground v.1.15,2013-04-29 22:09:00,
2013-04-29 18:10:00,67.6,58.6,29.87,NW,304,3.0,5.0,73,0.00,,,0.01,Wunderground v.1.15,2013-04-29 22:10:00,
2013-04-29 18:11:00,67.8,58.8,29.87,NNW,331,4.0,5.0,73,0.00,,,0.01,Wunderground v.1.15,2013-04-29 22:11:00,
2013-04-29 18:12:00,68.5,57.1,29.87,NW,321,0.0,5.0,67,0.00,,,0.01,Wunderground v.1.15,2013-04-29 22:12:00,
2013-04-29 18:13:00,68.6,57.2,29.87,NW,321,0.0,5.0,67,0.00,,,0.01,Wunderground v.1.15,2013-04-29 22:13:00,
2013-04-29 18:14:00,68.8,57.0,29.88,NW,312,0.0,5.0,66,0.00,,,0.01,Wunderground v.1.15,2013-04-29 22:14:00,
2013-04-29 18:16:00,69.6,58.2,29.87,SW,217,0.0,6.0,67,0.00,,,0.01,Wunderground v.1.15,2013-04-29 22:16:00,
2013-04-29 18:17:00,70.2,58.7,29.87,SSE,149,0.0,6.0,67,0.00,,,0.01,Wunderground v.1.15,2013-04-29 22:17:00,
2013-04-29 18:18:00,70.2,58.7,29.87,SSE,149,0.0,6.0,67,0.00,,,0.01,Wunderground v.1.15,2013-04-29 22:18:00,
2013-04-29 18:19:00,70.6,59.1,29.87,NNE,14,0.0,6.0,67,0.00,,,0.01,Wunderground v.1.15,2013-04-29 22:19:00,
2013-04-29 18:21:00,71.2,58.8,29.87,SW,229,4.0,5.0,65,0.00,,,0.01,Wunderground v.1.15,2013-04-29 22:21:00,
2013-04-29 18:22:00,71.3,58.9,29.86,WSW,248,2.0,5.0,65,0.00,,,0.01,Wunderground v.1.15,2013-04-29 22:22:00,
2013-04-29 18:23:00,71.7,57.5,29.87,SSW,192,3.0,10.0,61,0.00,,,0.01,Wunderground v.1.15,2013-04-29 22:23:00,
2013-04-29 18:24:00,71.9,58.2,29.87,SSW,206,1.0,10.0,62,0.00,,,0.01,Wunderground v.1.15,2013-04-29 22:24:00,
2013-04-29 18:27:00,72.4,58.2,29.86,SSE,167,2.0,10.0,61,0.00,,,0.01,Wunderground v.1.15,2013-04-29 22:27:00,
2013-04-29 18:28:00,72.6,58.4,29.86,SSE,166,4.0,10.0,61,0.00,,,0.01,Wunderground v.1.15,2013-04-29 22:28:00,
2013-04-29 18:29:00,72.7,58.0,29.86,South,170,2.0,10.0,60,0.00,,,0.01,Wunderground v.1.15,2013-04-29 22:29:00,
2013-04-29 18:32:00,72.8,57.2,29.86,WSW,258,1.0,7.0,58,0.00,,,0.01,Wunderground v.1.15,2013-04-29 22:32:00,
2013-04-29 18:34:00,72.8,56.2,29.86,SW,214,1.0,7.0,56,0.00,,,0.01,Wunderground v.1.15,2013-04-29 22:34:00,
2013-04-29 18:35:00,72.8,56.7,29.86,SSW,196,5.0,7.0,57,0.00,,,0.01,Wunderground v.1.15,2013-04-29 22:35:00,
2013-04-29 18:36:00,72.7,57.1,29.86,SSE,161,2.0,7.0,58,0.00,,,0.01,Wunderground v.1.15,2013-04-29 22:36:00,
2013-04-29 18:37:00,72.7,57.5,29.86,South,188,4.0,9.0,59,0.00,,,0.01,Wunderground v.1.15,2013-04-29 22:37:00,
2013-04-29 18:38:00,72.6,57.4,29.86,SSW,192,2.0,9.0,59,0.00,,,0.01,Wunderground v.1.15,2013-04-29 22:38:00,
2013-04-29 18:39:00,72.6,57.9,29.86,SSW,198,5.0,9.0,60,0.00,,,0.01,Wunderground v.1.15,2013-04-29 22:39:00,
2013-04-29 18:40:00,72.6,57.4,29.86,SSW,200,3.0,9.0,59,0.00,,,0.01,Wunderground v.1.15,2013-04-29 22:40:00,
2013-04-29 18:41:00,72.6,57.4,29.86,SSW,201,2.0,3.0,59,0.00,,,0.01,Wunderground v.1.15,2013-04-29 22:41:00,
2013-04-29 18:42:00,72.6,57.9,29.86,SSW,200,2.0,5.0,60,0.00,,,0.01,Wunderground v.1.15,2013-04-29 22:42:00,
2013-04-29 18:43:00,72.5,57.4,29.85,South,172,1.0,5.0,59,0.00,,,0.01,Wunderground v.1.15,2013-04-29 22:43:00,
2013-04-29 18:45:00,72.5,57.4,29.85,SW,219,3.0,5.0,59,0.00,,,0.01,Wunderground v.1.15,2013-04-29 22:45:00,
2013-04-29 18:46:00,72.4,57.3,29.85,SSW,198,2.0,10.0,59,0.00,,,0.01,Wunderground v.1.15,2013-04-29 22:46:00,
2013-04-29 18:47:00,72.4,56.8,29.85,South,182,5.0,10.0,58,0.00,,,0.01,Wunderground v.1.15,2013-04-29 22:47:00,
2013-04-29 18:48:00,72.3,56.7,29.85,SSW,205,0.0,11.0,58,0.00,,,0.01,Wunderground v.1.15,2013-04-29 22:48:00,
2013-04-29 18:50:00,72.3,57.2,29.85,SSW,209,2.0,3.0,59,0.00,,,0.01,Wunderground v.1.15,2013-04-29 22:50:00,
2013-04-29 18:52:00,72.4,58.2,29.85,SSE,159,1.0,4.0,61,0.00,,,0.01,Wunderground v.1.15,2013-04-29 22:52:00,
2013-04-29 18:53:00,72.5,58.3,29.85,SE,141,1.0,4.0,61,0.00,,,0.01,Wunderground v.1.15,2013-04-29 22:53:00,
2013-04-29 18:55:00,72.6,57.9,29.85,SSE,161,3.0,4.0,60,0.00,,,0.01,Wunderground v.1.15,2013-04-29 22:55:00,
2013-04-29 18:56:00,72.7,58.5,29.85,SSW,196,6.0,6.0,61,0.00,,,0.01,Wunderground v.1.15,2013-04-29 22:56:00,
2013-04-29 18:57:00,72.8,58.1,29.85,SSE,163,1.0,9.0,60,0.00,,,0.01,Wunderground v.1.15,2013-04-29 22:57:00,
2013-04-29 18:58:00,72.9,58.7,29.85,South,183,3.0,9.0,61,0.00,,,0.01,Wunderground v.1.15,2013-04-29 22:58:00,
2013-04-29 19:00:00,73.0,58.8,29.85,SSE,161,3.0,3.0,61,0.00,,,0.01,Wunderground v.1.15,2013-04-29 23:00:00,
2013-04-29 19:01:00,73.1,58.8,29.85,SSW,195,5.0,10.0,61,0.00,,,0.01,Wunderground v.1.15,2013-04-29 23:01:00,
2013-04-29 19:02:00,73.1,58.4,29.85,SSE,165,3.0,10.0,60,0.00,,,0.01,Wunderground v.1.15,2013-04-29 23:02:00,
2013-04-29 19:04:00,73.2,58.0,29.85,SSW,202,3.0,10.0,59,0.00,,,0.01,Wunderground v.1.15,2013-04-29 23:04:00,
2013-04-29 19:05:00,73.2,57.5,29.85,South,182,3.0,10.0,58,0.00,,,0.01,Wunderground v.1.15,2013-04-29 23:05:00,
2013-04-29 19:06:00,73.2,57.5,29.85,SSE,154,5.0,10.0,58,0.00,,,0.01,Wunderground v.1.15,2013-04-29 23:06:00,
2013-04-29 19:07:00,73.2,58.0,29.85,South,184,3.0,10.0,59,0.00,,,0.01,Wunderground v.1.15,2013-04-29 23:07:00,
2013-04-29 19:08:00,73.2,58.0,29.85,South,190,7.0,10.0,59,0.00,,,0.01,Wunderground v.1.15,2013-04-29 23:08:00,
2013-04-29 19:09:00,73.1,56.5,29.85,SSW,199,8.0,10.0,56,0.00,,,0.01,Wunderground v.1.15,2013-04-29 23:09:00,
2013-04-29 19:10:00,73.1,56.5,29.85,SW,226,3.0,9.0,56,0.00,,,0.01,Wunderground v.1.15,2013-04-29 23:10:00,
2013-04-29 19:12:00,73.0,56.4,29.85,SSE,164,3.0,9.0,56,0.00,,,0.01,Wunderground v.1.15,2013-04-29 23:12:00,
2013-04-29 19:13:00,72.8,56.2,29.85,South,191,3.0,9.0,56,0.00,,,0.01,Wunderground v.1.15,2013-04-29 23:13:00,
2013-04-29 19:14:00,72.7,56.1,29.85,SSW,198,0.0,9.0,56,0.00,,,0.01,Wunderground v.1.15,2013-04-29 23:14:00,
2013-04-29 19:17:00,72.6,57.0,29.85,SSE,165,2.0,9.0,58,0.00,,,0.01,Wunderground v.1.15,2013-04-29 23:17:00,
2013-04-29 19:18:00,72.5,56.9,29.86,SSE,156,3.0,9.0,58,0.00,,,0.01,Wunderground v.1.15,2013-04-29 23:18:00,
2013-04-29 19:20:00,72.4,57.3,29.85,South,169,1.0,3.0,59,0.00,,,0.01,Wunderground v.1.15,2013-04-29 23:20:00,
2013-04-29 19:22:00,72.3,56.7,29.85,South,189,3.0,11.0,58,0.00,,,0.01,Wunderground v.1.15,2013-04-29 23:22:00,
2013-04-29 19:23:00,72.2,56.6,29.86,South,186,4.0,11.0,58,0.00,,,0.01,Wunderground v.1.15,2013-04-29 23:23:00,
2013-04-29 19:24:00,72.2,57.1,29.86,SSW,203,11.0,14.0,59,0.00,,,0.01,Wunderground v.1.15,2013-04-29 23:24:00,
2013-04-29 19:25:00,72.1,56.5,29.86,SW,230,1.0,14.0,58,0.00,,,0.01,Wunderground v.1.15,2013-04-29 23:25:00,
2013-04-29 19:27:00,71.9,56.3,29.86,SSW,198,4.0,14.0,58,0.00,,,0.01,Wunderground v.1.15,2013-04-29 23:27:00,
2013-04-29 19:28:00,71.8,56.2,29.86,SSW,192,2.0,14.0,58,0.00,,,0.01,Wunderground v.1.15,2013-04-29 23:28:00,
2013-04-29 19:29:00,71.7,56.1,29.86,South,188,4.0,14.0,58,0.00,,,0.01,Wunderground v.1.15,2013-04-29 23:29:00,
2013-04-29 19:30:00,71.6,55.6,29.86,SSW,203,2.0,5.0,57,0.00,,,0.01,Wunderground v.1.15,2013-04-29 23:30:00,
2013-04-29 19:33:00,71.2,55.7,29.86,SSE,153,7.0,9.0,58,0.00,,,0.01,Wunderground v.1.15,2013-04-29 23:33:00,
2013-04-29 19:35:00,70.9,55.9,29.86,South,186,2.0,9.0,59,0.00,,,0.01,Wunderground v.1.15,2013-04-29 23:35:00,
2013-04-29 19:38:00,70.4,55.4,29.86,SSE,167,6.0,11.0,59,0.00,,,0.01,Wunderground v.1.15,2013-04-29 23:38:00,
2013-04-29 19:39:00,70.3,55.3,29.86,WSW,249,5.0,11.0,59,0.00,,,0.01,Wunderground v.1.15,2013-04-29 23:39:00,
2013-04-29 19:40:00,70.0,55.0,29.86,SW,227,3.0,5.0,59,0.00,,,0.01,Wunderground v.1.15,2013-04-29 23:40:00,
2013-04-29 19:41:00,69.9,55.4,29.86,SW,219,4.0,7.0,60,0.00,,,0.01,Wunderground v.1.15,2013-04-29 23:41:00,
2013-04-29 19:43:00,69.7,55.2,29.86,South,173,1.0,10.0,60,0.00,,,0.01,Wunderground v.1.15,2013-04-29 23:43:00,
2013-04-29 19:44:00,69.5,55.0,29.86,South,183,2.0,10.0,60,0.00,,,0.01,Wunderground v.1.15,2013-04-29 23:44:00,
2013-04-29 19:45:00,69.4,55.4,29.86,SSW,192,1.0,10.0,61,0.00,,,0.01,Wunderground v.1.15,2013-04-29 23:45:00,
2013-04-29 19:46:00,69.4,55.4,29.86,SSW,193,3.0,10.0,61,0.00,,,0.01,Wunderground v.1.15,2013-04-29 23:46:00,
2013-04-29 19:48:00,69.2,55.2,29.86,SSW,194,4.0,10.0,61,0.00,,,0.01,Wunderground v.1.15,2013-04-29 23:48:00,
2013-04-29 19:49:00,69.1,55.1,29.86,South,183,0.0,10.0,61,0.00,,,0.01,Wunderground v.1.15,2013-04-29 23:49:00,
2013-04-29 19:50:00,68.9,55.3,29.86,South,184,2.0,3.0,62,0.00,,,0.01,Wunderground v.1.15,2013-04-29 23:50:00,
2013-04-29 19:51:00,68.9,55.3,29.86,South,186,2.0,3.0,62,0.00,,,0.01,Wunderground v.1.15,2013-04-29 23:51:00,
2013-04-29 19:53:00,68.8,55.7,29.86,SSW,194,3.0,4.0,63,0.00,,,0.01,Wunderground v.1.15,2013-04-29 23:53:00,
2013-04-29 19:55:00,68.6,55.5,29.86,SSW,203,3.0,11.0,63,0.00,,,0.01,Wunderground v.1.15,2013-04-29 23:55:00,
2013-04-29 19:56:00,68.6,55.5,29.86,SSE,153,4.0,11.0,63,0.00,,,0.01,Wunderground v.1.15,2013-04-29 23:56:00,
2013-04-29 19:57:00,68.5,55.4,29.85,SSW,200,5.0,11.0,63,0.00,,,0.01,Wunderground v.1.15,2013-04-29 23:57:00,
2013-04-29 19:58:00,68.5,55.4,29.85,SSE,165,2.0,11.0,63,0.00,,,0.01,Wunderground v.1.15,2013-04-29 23:58:00,
2013-04-29 20:00:00,68.4,55.7,29.85,SSE,148,3.0,3.0,64,0.00,,,0.01,Wunderground v.1.15,2013-04-30 00:00:00,
2013-04-29 20:01:00,68.3,55.6,29.85,SSE,157,2.0,6.0,64,0.00,,,0.01,Wunderground v.1.15,2013-04-30 00:01:00,
2013-04-29 20:02:00,68.3,56.1,29.85,South,173,5.0,6.0,65,0.00,,,0.01,Wunderground v.1.15,2013-04-30 00:02:00,
2013-04-29 20:03:00,68.3,55.6,29.84,SSE,161,3.0,7.0,64,0.00,,,0.01,Wunderground v.1.15,2013-04-30 00:03:00,
2013-04-29 20:05:00,68.2,55.6,29.84,South,171,2.0,7.0,64,0.00,,,0.01,Wunderground v.1.15,2013-04-30 00:05:00,
2013-04-29 20:07:00,68.1,55.9,29.84,SSE,167,0.0,7.0,65,0.00,,,0.01,Wunderground v.1.15,2013-04-30 00:07:00,
2013-04-29 20:08:00,68.0,55.8,29.84,SSE,167,3.0,7.0,65,0.00,,,0.01,Wunderground v.1.15,2013-04-30 00:08:00,
2013-04-29 20:10:00,68.0,55.8,29.84,SSE,166,1.0,2.0,65,0.00,,,0.01,Wunderground v.1.15,2013-04-30 00:10:00,
2013-04-29 20:12:00,67.9,55.7,29.84,SSE,156,1.0,10.0,65,0.00,,,0.01,Wunderground v.1.15,2013-04-30 00:12:00,
2013-04-29 20:13:00,67.8,55.6,29.84,South,169,3.0,10.0,65,0.00,,,0.01,Wunderground v.1.15,2013-04-30 00:13:00,
2013-04-29 20:15:00,67.7,55.5,29.84,South,169,3.0,10.0,65,0.00,,,0.01,Wunderground v.1.15,2013-04-30 00:15:00,
2013-04-29 20:17:00,67.5,55.7,29.84,SSE,160,2.0,10.0,66,0.00,,,0.01,Wunderground v.1.15,2013-04-30 00:17:00,
2013-04-29 20:18:00,67.5,55.7,29.84,SSE,165,3.0,10.0,66,0.00,,,0.01,Wunderground v.1.15,2013-04-30 00:18:00,
2013-04-29 20:19:00,67.4,55.6,29.84,South,180,4.0,10.0,66,0.00,,,0.01,Wunderground v.1.15,2013-04-30 00:19:00,
2013-04-29 20:20:00,67.2,55.0,29.85,SSE,164,3.0,4.0,65,0.00,,,0.01,Wunderground v.1.15,2013-04-30 00:20:00,
2013-04-29 20:23:00,67.1,55.4,29.85,South,173,5.0,5.0,66,0.00,,,0.01,Wunderground v.1.15,2013-04-30 00:23:00,
2013-04-29 20:24:00,67.0,55.3,29.85,South,175,0.0,5.0,66,0.00,,,0.01,Wunderground v.1.15,2013-04-30 00:24:00,
2013-04-29 20:25:00,67.0,55.3,29.85,SE,144,3.0,5.0,66,0.00,,,0.01,Wunderground v.1.15,2013-04-30 00:25:00,
2013-04-29 20:28:00,66.8,55.1,29.85,South,182,1.0,5.0,66,0.00,,,0.01,Wunderground v.1.15,2013-04-30 00:28:00,
2013-04-29 20:29:00,66.8,55.1,29.85,SSE,153,4.0,5.0,66,0.00,,,0.01,Wunderground v.1.15,2013-04-30 00:29:00,
2013-04-29 20:31:00,66.6,55.3,29.85,SSW,194,3.0,5.0,67,0.00,,,0.01,Wunderground v.1.15,2013-04-30 00:31:00,
2013-04-29 20:33:00,66.4,55.1,29.85,South,188,2.0,7.0,67,0.00,,,0.01,Wunderground v.1.15,2013-04-30 00:33:00,
2013-04-29 20:34:00,66.3,55.0,29.85,South,190,0.0,7.0,67,0.00,,,0.01,Wunderground v.1.15,2013-04-30 00:34:00,
2013-04-29 20:36:00,66.2,54.9,29.85,SSE,155,1.0,7.0,67,0.00,,,0.01,Wunderground v.1.15,2013-04-30 00:36:00,
2013-04-29 20:39:00,66.0,55.1,29.85,SSE,162,3.0,7.0,68,0.00,,,0.01,Wunderground v.1.15,2013-04-30 00:39:00,
2013-04-29 20:40:00,65.9,55.0,29.85,SSW,203,4.0,4.0,68,0.00,,,0.01,Wunderground v.1.15,2013-04-30 00:40:00,
2013-04-29 20:41:00,65.8,54.9,29.85,SSW,192,5.0,6.0,68,0.00,,,0.01,Wunderground v.1.15,2013-04-30 00:41:00,
2013-04-29 20:44:00,65.6,54.8,29.85,SSE,158,1.0,7.0,68,0.00,,,0.01,Wunderground v.1.15,2013-04-30 00:44:00,
2013-04-29 20:46:00,65.5,54.7,29.85,SSE,163,1.0,7.0,68,0.00,,,0.01,Wunderground v.1.15,2013-04-30 00:46:00,
2013-04-29 20:49:00,65.4,55.0,29.85,SSE,159,0.0,8.0,69,0.00,,,0.01,Wunderground v.1.15,2013-04-30 00:49:00,
2013-04-29 20:50:00,65.3,54.9,29.85,SSE,159,2.0,2.0,69,0.00,,,0.01,Wunderground v.1.15,2013-04-30 00:50:00,
2013-04-29 20:51:00,65.3,54.9,29.85,SSE,165,3.0,3.0,69,0.00,,,0.01,Wunderground v.1.15,2013-04-30 00:51:00,
2013-04-29 20:52:00,65.2,55.2,29.85,South,179,3.0,3.0,70,0.00,,,0.01,Wunderground v.1.15,2013-04-30 00:52:00,
2013-04-29 20:55:00,65.0,55.0,29.85,SSE,153,1.0,4.0,70,0.00,,,0.01,Wunderground v.1.15,2013-04-30 00:55:00,
2013-04-29 20:56:00,64.9,54.9,29.85,SSE,158,3.0,4.0,70,0.00,,,0.01,Wunderground v.1.15,2013-04-30 00:56:00,
2013-04-29 20:57:00,64.9,54.9,29.84,SW,219,1.0,4.0,70,0.00,,,0.01,Wunderground v.1.15,2013-04-30 00:57:00,
2013-04-29 21:00:00,64.7,54.7,29.85,SSE,161,3.0,3.0,70,0.00,,,0.01,Wunderground v.1.15,2013-04-30 01:00:00,
2013-04-29 21:01:00,64.7,54.7,29.85,SSE,161,1.0,3.0,70,0.00,,,0.01,Wunderground v.1.15,2013-04-30 01:01:00,
2013-04-29 21:02:00,64.6,55.0,29.85,SSE,154,2.0,4.0,71,0.00,,,0.01,Wunderground v.1.15,2013-04-30 01:02:00,
2013-04-29 21:05:00,64.5,54.9,29.85,SSW,202,1.0,10.0,71,0.00,,,0.01,Wunderground v.1.15,2013-04-30 01:05:00,
2013-04-29 21:06:00,64.4,54.8,29.85,SSE,156,3.0,10.0,71,0.00,,,0.01,Wunderground v.1.15,2013-04-30 01:06:00,
2013-04-29 21:07:00,64.4,54.8,29.85,SSE,155,0.0,10.0,71,0.00,,,0.01,Wunderground v.1.15,2013-04-30 01:07:00,
2013-04-29 21:10:00,64.3,54.7,29.85,South,171,2.0,5.0,71,0.00,,,0.01,Wunderground v.1.15,2013-04-30 01:10:00,
2013-04-29 21:11:00,64.3,54.7,29.85,South,175,3.0,5.0,71,0.00,,,0.01,Wunderground v.1.15,2013-04-30 01:11:00,
2013-04-29 21:13:00,64.2,54.6,29.85,South,172,1.0,5.0,71,0.00,,,0.01,Wunderground v.1.15,2013-04-30 01:13:00,
2013-04-29 21:16:00,64.2,55.0,29.85,South,188,1.0,5.0,72,0.00,,,0.01,Wunderground v.1.15,2013-04-30 01:16:00,
2013-04-29 21:17:00,64.1,54.9,29.85,South,186,0.0,5.0,72,0.00,,,0.01,Wunderground v.1.15,2013-04-30 01:17:00,
2013-04-29 21:18:00,64.1,54.9,29.85,South,173,0.0,5.0,72,0.00,,,0.01,Wunderground v.1.15,2013-04-30 01:18:00,
2013-04-29 21:21:00,64.0,54.8,29.86,SSE,153,1.0,4.0,72,0.00,,,0.01,Wunderground v.1.15,2013-04-30 01:21:00,
2013-04-29 21:22:00,64.0,54.8,29.86,SSE,156,0.0,4.0,72,0.00,,,0.01,Wunderground v.1.15,2013-04-30 01:22:00,
2013-04-29 21:23:00,64.0,54.8,29.86,SSE,156,0.0,4.0,72,0.00,,,0.01,Wunderground v.1.15,2013-04-30 01:23:00,
2013-04-29 21:26:00,63.9,54.7,29.86,SSE,160,0.0,4.0,72,0.00,,,0.01,Wunderground v.1.15,2013-04-30 01:26:00,
2013-04-29 21:27:00,63.9,54.7,29.86,SSE,163,3.0,4.0,72,0.00,,,0.01,Wunderground v.1.15,2013-04-30 01:27:00,
2013-04-29 21:28:00,63.9,54.7,29.86,SSE,167,1.0,4.0,72,0.00,,,0.01,Wunderground v.1.15,2013-04-30 01:28:00,
2013-04-29 21:31:00,63.8,54.6,29.86,South,173,3.0,3.0,72,0.00,,,0.01,Wunderground v.1.15,2013-04-30 01:31:00,
2013-04-29 21:32:00,63.8,54.6,29.86,South,173,0.0,3.0,72,0.00,,,0.01,Wunderground v.1.15,2013-04-30 01:32:00,
2013-04-29 21:33:00,63.8,54.6,29.87,SSE,168,3.0,3.0,72,0.00,,,0.01,Wunderground v.1.15,2013-04-30 01:33:00,
2013-04-29 21:37:00,63.6,54.4,29.86,SSW,199,1.0,5.0,72,0.00,,,0.01,Wunderground v.1.15,2013-04-30 01:37:00,
2013-04-29 21:38:00,63.6,54.4,29.86,SSW,207,6.0,7.0,72,0.00,,,0.01,Wunderground v.1.15,2013-04-30 01:38:00,
2013-04-29 21:42:00,63.4,54.6,29.86,SSE,168,4.0,7.0,73,0.00,,,0.01,Wunderground v.1.15,2013-04-30 01:42:00,
2013-04-29 21:43:00,63.4,54.6,29.86,SSW,196,1.0,10.0,73,0.00,,,0.01,Wunderground v.1.15,2013-04-30 01:43:00,
2013-04-29 21:47:00,63.3,54.5,29.87,South,188,3.0,10.0,73,0.00,,,0.01,Wunderground v.1.15,2013-04-30 01:47:00,
2013-04-29 21:48:00,63.3,54.5,29.87,SSW,193,5.0,10.0,73,0.00,,,0.01,Wunderground v.1.15,2013-04-30 01:48:00,
2013-04-29 21:49:00,63.3,54.5,29.87,SSW,198,2.0,10.0,73,0.00,,,0.01,Wunderground v.1.15,2013-04-30 01:49:00,
2013-04-29 21:53:00,63.2,54.4,29.87,South,188,3.0,3.0,73,0.00,,,0.01,Wunderground v.1.15,2013-04-30 01:53:00,
2013-04-29 21:54:00,63.1,54.3,29.87,South,186,0.0,3.0,73,0.00,,,0.01,Wunderground v.1.15,2013-04-30 01:54:00,
2013-04-29 21:58:00,63.0,54.6,29.87,South,190,3.0,6.0,74,0.00,,,0.01,Wunderground v.1.15,2013-04-30 01:58:00,
2013-04-29 21:59:00,63.0,54.6,29.87,SW,222,3.0,6.0,74,0.00,,,0.01,Wunderground v.1.15,2013-04-30 01:59:00,
2013-04-29 22:03:00,62.9,54.5,29.87,SSW,198,7.0,7.0,74,0.00,,,0.01,Wunderground v.1.15,2013-04-30 02:03:00,
2013-04-29 22:04:00,62.9,54.5,29.87,SSE,168,1.0,7.0,74,0.00,,,0.01,Wunderground v.1.15,2013-04-30 02:04:00,
2013-04-29 22:05:00,62.8,54.4,29.87,SSW,210,2.0,7.0,74,0.00,,,0.01,Wunderground v.1.15,2013-04-30 02:05:00,
2013-04-29 22:08:00,62.7,54.7,29.87,South,180,0.0,7.0,75,0.00,,,0.01,Wunderground v.1.15,2013-04-30 02:08:00,
2013-04-29 22:09:00,62.7,54.7,29.87,South,173,1.0,7.0,75,0.00,,,0.01,Wunderground v.1.15,2013-04-30 02:09:00,
2013-04-29 22:10:00,62.7,54.7,29.87,SSE,167,3.0,3.0,75,0.00,,,0.01,Wunderground v.1.15,2013-04-30 02:10:00,
2013-04-29 22:12:00,62.6,54.6,29.87,South,183,5.0,6.0,75,0.00,,,0.01,Wunderground v.1.15,2013-04-30 02:12:00,
2013-04-29 22:13:00,62.6,54.6,29.87,SSE,168,0.0,6.0,75,0.00,,,0.01,Wunderground v.1.15,2013-04-30 02:13:00,
2013-04-29 22:14:00,62.6,54.6,29.87,SSE,163,3.0,9.0,75,0.00,,,0.01,Wunderground v.1.15,2013-04-30 02:14:00,
2013-04-29 22:15:00,62.5,54.5,29.87,SSE,159,1.0,9.0,75,0.00,,,0.01,Wunderground v.1.15,2013-04-30 02:15:00,
2013-04-29 22:17:00,62.5,54.5,29.87,SSE,161,3.0,9.0,75,0.00,,,0.01,Wunderground v.1.15,2013-04-30 02:17:00,
2013-04-29 22:18:00,62.5,54.5,29.87,South,186,2.0,9.0,75,0.00,,,0.01,Wunderground v.1.15,2013-04-30 02:18:00,
2013-04-29 22:19:00,62.4,54.4,29.87,South,179,3.0,9.0,75,0.00,,,0.01,Wunderground v.1.15,2013-04-30 02:19:00,
2013-04-29 22:21:00,62.4,54.4,29.87,SSE,164,1.0,3.0,75,0.00,,,0.01,Wunderground v.1.15,2013-04-30 02:21:00,
2013-04-29 22:22:00,62.4,54.4,29.87,SSE,165,2.0,3.0,75,0.00,,,0.01,Wunderground v.1.15,2013-04-30 02:22:00,
2013-04-29 22:24:00,62.3,54.6,29.87,SSW,205,6.0,6.0,76,0.00,,,0.01,Wunderground v.1.15,2013-04-30 02:24:00,
2013-04-29 22:25:00,62.3,54.6,29.87,SE,137,1.0,6.0,76,0.00,,,0.01,Wunderground v.1.15,2013-04-30 02:25:00,
2013-04-29 22:27:00,62.3,54.6,29.87,SSW,192,4.0,6.0,76,0.00,,,0.01,Wunderground v.1.15,2013-04-30 02:27:00,
2013-04-29 22:28:00,62.2,54.5,29.87,South,182,2.0,6.0,76,0.00,,,0.01,Wunderground v.1.15,2013-04-30 02:28:00,
2013-04-29 22:30:00,62.2,54.5,29.87,South,169,1.0,2.0,76,0.00,,,0.01,Wunderground v.1.15,2013-04-30 02:30:00,
2013-04-29 22:32:00,62.1,54.4,29.87,SSE,158,3.0,11.0,76,0.00,,,0.01,Wunderground v.1.15,2013-04-30 02:32:00,
2013-04-29 22:33:00,62.1,54.4,29.87,SSE,147,6.0,11.0,76,0.00,,,0.01,Wunderground v.1.15,2013-04-30 02:33:00,
2013-04-29 22:35:00,62.1,54.4,29.88,SSE,158,0.0,11.0,76,0.00,,,0.01,Wunderground v.1.15,2013-04-30 02:35:00,
2013-04-29 22:37:00,62.1,54.4,29.87,SSW,192,2.0,11.0,76,0.00,,,0.01,Wunderground v.1.15,2013-04-30 02:37:00,
2013-04-29 22:38:00,62.1,54.4,29.87,SSW,196,5.0,11.0,76,0.00,,,0.01,Wunderground v.1.15,2013-04-30 02:38:00,
2013-04-29 22:40:00,62.0,54.3,29.87,SW,231,0.0,4.0,76,0.00,,,0.01,Wunderground v.1.15,2013-04-30 02:40:00,
2013-04-29 22:42:00,62.0,54.3,29.87,SSE,164,1.0,5.0,76,0.00,,,0.01,Wunderground v.1.15,2013-04-30 02:42:00,
2013-04-29 22:43:00,62.0,54.3,29.87,SSE,153,5.0,5.0,76,0.00,,,0.01,Wunderground v.1.15,2013-04-30 02:43:00,
2013-04-29 22:45:00,62.0,54.3,29.88,South,176,3.0,6.0,76,0.00,,,0.01,Wunderground v.1.15,2013-04-30 02:45:00,
2013-04-29 22:47:00,62.0,54.3,29.87,South,169,2.0,6.0,76,0.00,,,0.01,Wunderground v.1.15,2013-04-30 02:47:00,
2013-04-29 22:48:00,62.0,54.7,29.87,South,169,2.0,6.0,77,0.00,,,0.01,Wunderground v.1.15,2013-04-30 02:48:00,
2013-04-29 22:49:00,62.0,54.7,29.87,South,177,3.0,6.0,77,0.00,,,0.01,Wunderground v.1.15,2013-04-30 02:49:00,
2013-04-29 22:51:00,62.0,54.7,29.87,SSW,207,3.0,7.0,77,0.00,,,0.01,Wunderground v.1.15,2013-04-30 02:51:00,
2013-04-29 22:52:00,62.0,54.7,29.87,South,189,0.0,7.0,77,0.00,,,0.01,Wunderground v.1.15,2013-04-30 02:52:00,
2013-04-29 22:53:00,61.9,54.6,29.87,South,186,1.0,7.0,77,0.00,,,0.01,Wunderground v.1.15,2013-04-30 02:53:00,
2013-04-29 22:54:00,61.9,54.6,29.87,South,182,2.0,7.0,77,0.00,,,0.01,Wunderground v.1.15,2013-04-30 02:54:00,
2013-04-29 22:56:00,61.9,54.6,29.87,South,182,1.0,7.0,77,0.00,,,0.01,Wunderground v.1.15,2013-04-30 02:56:00,
2013-04-29 22:57:00,61.9,54.6,29.87,SSW,198,4.0,7.0,77,0.00,,,0.01,Wunderground v.1.15,2013-04-30 02:57:00,
2013-04-29 22:59:00,61.9,54.6,29.87,SSE,163,3.0,7.0,77,0.00,,,0.01,Wunderground v.1.15,2013-04-30 02:59:00,
2013-04-29 23:01:00,61.9,54.6,29.87,SSE,164,3.0,6.0,77,0.00,,,0.01,Wunderground v.1.15,2013-04-30 03:01:00,
2013-04-29 23:02:00,61.9,54.6,29.87,South,175,4.0,6.0,77,0.00,,,0.01,Wunderground v.1.15,2013-04-30 03:02:00,
2013-04-29 23:04:00,61.9,54.6,29.87,SSE,147,1.0,6.0,77,0.00,,,0.01,Wunderground v.1.15,2013-04-30 03:04:00,
2013-04-29 23:05:00,61.9,54.6,29.87,South,169,3.0,6.0,77,0.00,,,0.01,Wunderground v.1.15,2013-04-30 03:05:00,
2013-04-29 23:06:00,61.9,55.0,29.87,South,186,2.0,6.0,78,0.00,,,0.01,Wunderground v.1.15,2013-04-30 03:06:00,
2013-04-29 23:07:00,61.9,54.6,29.87,SSE,164,2.0,6.0,77,0.00,,,0.01,Wunderground v.1.15,2013-04-30 03:07:00,
2013-04-29 23:09:00,61.9,54.6,29.87,SSW,195,1.0,6.0,77,0.00,,,0.01,Wunderground v.1.15,2013-04-30 03:09:00,
2013-04-29 23:10:00,61.9,54.6,29.87,South,180,3.0,3.0,77,0.00,,,0.01,Wunderground v.1.15,2013-04-30 03:10:00,
2013-04-29 23:11:00,61.8,54.5,29.87,South,178,4.0,5.0,77,0.00,,,0.01,Wunderground v.1.15,2013-04-30 03:11:00,
2013-04-29 23:12:00,61.9,54.6,29.87,SE,136,1.0,5.0,77,0.00,,,0.01,Wunderground v.1.15,2013-04-30 03:12:00,
2013-04-29 23:14:00,61.9,54.6,29.87,SSE,163,3.0,5.0,77,0.00,,,0.01,Wunderground v.1.15,2013-04-30 03:14:00,
2013-04-29 23:16:00,61.8,54.5,29.87,SSE,165,1.0,5.0,77,0.00,,,0.01,Wunderground v.1.15,2013-04-30 03:16:00,
2013-04-29 23:17:00,61.8,54.9,29.87,SSE,165,2.0,5.0,78,0.00,,,0.01,Wunderground v.1.15,2013-04-30 03:17:00,
2013-04-29 23:19:00,61.8,54.9,29.87,SSW,195,4.0,9.0,78,0.00,,,0.01,Wunderground v.1.15,2013-04-30 03:19:00,
2013-04-29 23:21:00,61.7,54.8,29.87,SSE,161,0.0,2.0,78,0.00,,,0.01,Wunderground v.1.15,2013-04-30 03:21:00,
2013-04-29 23:22:00,61.7,54.8,29.87,SSE,167,3.0,4.0,78,0.00,,,0.01,Wunderground v.1.15,2013-04-30 03:22:00,
2013-04-29 23:23:00,61.7,54.8,29.87,South,173,3.0,5.0,78,0.00,,,0.01,Wunderground v.1.15,2013-04-30 03:23:00,
2013-04-29 23:24:00,61.7,54.8,29.87,South,172,4.0,5.0,78,0.00,,,0.01,Wunderground v.1.15,2013-04-30 03:24:00,
2013-04-29 23:27:00,61.6,54.7,29.87,SSE,160,1.0,5.0,78,0.00,,,0.01,Wunderground v.1.15,2013-04-30 03:27:00,
2013-04-29 23:28:00,61.6,54.7,29.87,South,187,2.0,6.0,78,0.00,,,0.01,Wunderground v.1.15,2013-04-30 03:28:00,
2013-04-29 23:29:00,61.6,54.7,29.86,South,191,1.0,6.0,78,0.00,,,0.01,Wunderground v.1.15,2013-04-30 03:29:00,
2013-04-29 23:32:00,61.5,54.6,29.86,SSE,164,5.0,6.0,78,0.00,,,0.01,Wunderground v.1.15,2013-04-30 03:32:00,
2013-04-29 23:33:00,61.5,54.6,29.86,SSE,159,3.0,6.0,78,0.00,,,0.01,Wunderground v.1.15,2013-04-30 03:33:00,
2013-04-29 23:34:00,61.5,54.6,29.86,SSE,155,0.0,6.0,78,0.00,,,0.01,Wunderground v.1.15,2013-04-30 03:34:00,
2013-04-29 23:37:00,61.4,54.5,29.86,South,178,3.0,6.0,78,0.00,,,0.01,Wunderground v.1.15,2013-04-30 03:37:00,
2013-04-29 23:38:00,61.4,54.5,29.87,SSE,163,2.0,6.0,78,0.00,,,0.01,Wunderground v.1.15,2013-04-30 03:38:00,
2013-04-29 23:39:00,61.4,54.5,29.87,South,173,2.0,6.0,78,0.00,,,0.01,Wunderground v.1.15,2013-04-30 03:39:00,
2013-04-29 23:40:00,61.4,54.5,29.87,SSE,159,0.0,3.0,78,0.00,,,0.01,Wunderground v.1.15,2013-04-30 03:40:00,
2013-04-29 23:42:00,61.3,54.4,29.87,SSW,210,4.0,4.0,78,0.00,,,0.01,Wunderground v.1.15,2013-04-30 03:42:00,
2013-04-29 23:43:00,61.3,54.4,29.87,South,190,2.0,4.0,78,0.00,,,0.01,Wunderground v.1.15,2013-04-30 03:43:00,
2013-04-29 23:45:00,61.3,54.7,29.87,SSE,161,0.0,6.0,79,0.00,,,0.01,Wunderground v.1.15,2013-04-30 03:45:00,
2013-04-29 23:47:00,61.2,54.6,29.87,South,174,1.0,7.0,79,0.00,,,0.01,Wunderground v.1.15,2013-04-30 03:47:00,
2013-04-29 23:48:00,61.2,54.6,29.87,SSE,167,5.0,7.0,79,0.00,,,0.01,Wunderground v.1.15,2013-04-30 03:48:00,
2013-04-29 23:50:00,61.1,54.5,29.87,SSE,161,3.0,4.0,79,0.00,,,0.01,Wunderground v.1.15,2013-04-30 03:50:00,
2013-04-29 23:51:00,61.1,54.5,29.87,SSE,163,4.0,4.0,79,0.00,,,0.01,Wunderground v.1.15,2013-04-30 03:51:00,
2013-04-29 23:52:00,61.1,54.5,29.87,SSE,164,0.0,4.0,79,0.00,,,0.01,Wunderground v.1.15,2013-04-30 03:52:00,
2013-04-29 23:54:00,61.0,54.4,29.87,SSE,165,2.0,4.0,79,0.00,,,0.01,Wunderground v.1.15,2013-04-30 03:54:00,
2013-04-29 23:56:00,61.0,54.4,29.87,SSE,165,3.0,4.0,79,0.00,,,0.01,Wunderground v.1.15,2013-04-30 03:56:00,
2013-04-29 23:57:00,60.9,54.3,29.87,SSE,163,0.0,4.0,79,0.00,,,0.01,Wunderground v.1.15,2013-04-30 03:57:00,
2013-04-29 23:59:00,60.9,54.3,29.87,South,171,3.0,4.0,79,0.00,,,0.01,Wunderground v.1.15,2013-04-30 03:59:00,